Time,TemperatureF,DewpointF,PressureIn,WindDirection,WindDirectionDegrees,WindSpeedMPH,WindSpeedGustMPH,Humidity,HourlyPrecipIn,Conditions,Clouds,dailyrainin,SoftwareType,DateUTC
2013-06-30 00:00:00,76.4,71.9,29.45,ESE,113,0.0,0.0,86,0.00,,,0.00,WUHU216HW,2013-06-30 04:00:00,
2013-06-30 00:01:00,78.6,74.1,29.63,ENE,68,0.0,0.0,86,0.02,,,0.00,WUHU216HW,2013-06-30 04:01:00,
2013-06-30 00:02:00,78.6,74.1,29.63,ENE,68,0.0,0.0,86,0.02,,,0.00,WUHU216HW,2013-06-30 04:02:00,
2013-06-30 00:03:00,78.6,74.1,29.62,ENE,68,0.0,0.0,86,0.02,,,0.00,WUHU216HW,2013-06-30 04:03:00,
2013-06-30 00:04:00,78.4,73.9,29.62,ENE,68,0.0,0.0,86,0.02,,,0.00,WUHU216HW,2013-06-30 04:04:00,
2013-06-30 00:05:00,78.4,73.9,29.62,ENE,68,0.0,0.0,86,0.02,,,0.00,WUHU216HW,2013-06-30 04:05:00,
2013-06-30 00:06:00,78.4,73.9,29.62,ENE,68,0.0,0.0,86,0.02,,,0.00,WUHU216HW,2013-06-30 04:06:00,
2013-06-30 00:07:00,78.2,74.1,29.62,ENE,68,0.0,0.0,87,0.02,,,0.00,WUHU216HW,2013-06-30 04:07:00,
2013-06-30 00:08:00,78.0,73.9,29.62,ENE,68,0.0,0.0,87,0.02,,,0.00,WUHU216HW,2013-06-30 04:08:00,
2013-06-30 00:09:00,78.0,73.9,29.62,ENE,68,0.0,0.0,87,0.02,,,0.00,WUHU216HW,2013-06-30 04:09:00,
2013-06-30 00:10:00,78.0,73.9,29.62,ENE,68,0.0,0.0,87,0.02,,,0.00,WUHU216HW,2013-06-30 04:10:00,
2013-06-30 00:11:00,78.0,73.9,29.62,ENE,68,0.0,0.0,87,0.02,,,0.00,WUHU216HW,2013-06-30 04:11:00,
2013-06-30 00:12:00,76.2,71.8,29.45,ESE,113,0.0,0.0,86,0.00,,,0.00,WUHU216HW,2013-06-30 04:12:00,
2013-06-30 00:13:00,77.9,73.7,29.62,ENE,68,0.0,0.0,87,0.02,,,0.00,WUHU216HW,2013-06-30 04:13:00,
2013-06-30 00:14:00,77.9,73.7,29.62,ENE,68,0.0,0.0,87,0.02,,,0.00,WUHU216HW,2013-06-30 04:14:00,
2013-06-30 00:15:00,77.7,73.5,29.62,ENE,68,0.0,0.0,87,0.02,,,0.00,WUHU216HW,2013-06-30 04:15:00,
2013-06-30 00:16:00,77.7,73.5,29.62,ENE,68,0.0,0.0,87,0.02,,,0.00,WUHU216HW,2013-06-30 04:16:00,
2013-06-30 00:17:00,76.2,71.8,29.45,ESE,113,0.0,0.0,87,0.00,,,0.00,WUHU216HW,2013-06-30 04:17:00,
2013-06-30 00:18:00,77.5,73.4,29.62,ENE,68,0.0,0.0,87,0.02,,,0.00,WUHU216HW,2013-06-30 04:18:00,
2013-06-30 00:19:00,77.5,73.4,29.62,ENE,68,0.0,0.0,87,0.02,,,0.00,WUHU216HW,2013-06-30 04:19:00,
2013-06-30 00:20:00,77.3,73.2,29.61,ENE,68,0.0,0.0,87,0.02,,,0.00,WUHU216HW,2013-06-30 04:20:00,
2013-06-30 00:21:00,77.3,73.2,29.62,ENE,68,0.0,0.0,87,0.02,,,0.00,WUHU216HW,2013-06-30 04:21:00,
2013-06-30 00:22:00,76.1,71.9,29.45,SE,135,0.0,0.0,87,0.00,,,0.00,WUHU216HW,2013-06-30 04:22:00,
2013-06-30 00:23:00,77.1,73.0,29.62,ENE,68,0.0,0.0,87,0.04,,,0.03,WUHU216HW,2013-06-30 04:23:00,
2013-06-30 00:24:00,76.8,73.0,29.62,ENE,68,0.0,0.0,88,0.04,,,0.03,WUHU216HW,2013-06-30 04:24:00,
2013-06-30 00:25:00,76.8,73.0,29.62,ENE,68,0.0,0.0,88,0.04,,,0.03,WUHU216HW,2013-06-30 04:25:00,
2013-06-30 00:26:00,76.8,73.0,29.62,ENE,68,0.0,0.0,88,0.06,,,0.05,WUHU216HW,2013-06-30 04:26:00,
2013-06-30 00:27:00,76.1,71.9,29.45,SE,135,0.0,0.0,87,0.00,,,0.00,WUHU216HW,2013-06-30 04:27:00,
2013-06-30 00:28:00,76.6,72.8,29.62,ENE,68,0.0,0.0,88,0.06,,,0.05,WUHU216HW,2013-06-30 04:28:00,
2013-06-30 00:29:00,76.6,72.8,29.62,ENE,68,0.0,0.0,88,0.06,,,0.05,WUHU216HW,2013-06-30 04:29:00,
2013-06-30 00:30:00,76.6,72.8,29.62,ENE,68,0.0,0.0,88,0.06,,,0.05,WUHU216HW,2013-06-30 04:30:00,
2013-06-30 00:31:00,76.6,72.8,29.62,ENE,68,0.0,0.0,88,0.06,,,0.05,WUHU216HW,2013-06-30 04:31:00,
2013-06-30 00:32:00,75.9,71.8,29.45,SE,135,0.0,0.0,87,0.00,,,0.00,WUHU216HW,2013-06-30 04:32:00,
2013-06-30 00:33:00,76.6,72.8,29.62,ENE,68,0.0,0.0,88,0.06,,,0.05,WUHU216HW,2013-06-30 04:33:00,
2013-06-30 00:34:00,76.6,72.8,29.62,ENE,68,0.0,0.0,88,0.06,,,0.05,WUHU216HW,2013-06-30 04:34:00,
2013-06-30 00:35:00,76.6,72.8,29.62,ENE,68,0.0,0.0,88,0.06,,,0.05,WUHU216HW,2013-06-30 04:35:00,
2013-06-30 00:36:00,76.6,72.8,29.62,ENE,68,0.0,0.0,88,0.06,,,0.05,WUHU216HW,2013-06-30 04:36:00,
2013-06-30 00:37:00,75.9,71.8,29.45,SE,135,0.0,0.0,87,0.00,,,0.00,WUHU216HW,2013-06-30 04:37:00,
2013-06-30 00:38:00,76.6,72.8,29.62,ENE,68,0.0,0.0,89,0.08,,,0.07,WUHU216HW,2013-06-30 04:38:00,
2013-06-30 00:39:00,76.4,73.0,29.62,ENE,68,0.0,0.0,89,0.08,,,0.07,WUHU216HW,2013-06-30 04:39:00,
2013-06-30 00:40:00,76.4,73.0,29.62,ENE,68,0.0,0.0,89,0.08,,,0.07,WUHU216HW,2013-06-30 04:40:00,
2013-06-30 00:41:00,76.2,72.8,29.62,ENE,68,0.0,0.0,89,0.08,,,0.07,WUHU216HW,2013-06-30 04:41:00,
2013-06-30 00:42:00,75.7,71.6,29.45,SE,135,0.0,0.0,87,0.00,,,0.00,WUHU216HW,2013-06-30 04:42:00,
2013-06-30 00:43:00,76.2,72.8,29.62,ENE,68,0.0,0.0,89,0.08,,,0.07,WUHU216HW,2013-06-30 04:43:00,
2013-06-30 00:44:00,76.2,72.8,29.62,ENE,68,0.0,0.0,89,0.08,,,0.07,WUHU216HW,2013-06-30 04:44:00,
2013-06-30 00:45:00,76.1,72.6,29.62,ENE,68,0.0,0.0,89,0.08,,,0.07,WUHU216HW,2013-06-30 04:45:00,
2013-06-30 00:46:00,76.1,72.6,29.62,ENE,68,0.0,0.0,89,0.08,,,0.07,WUHU216HW,2013-06-30 04:46:00,
2013-06-30 00:47:00,75.7,71.6,29.45,SE,135,0.0,0.0,88,0.00,,,0.00,WUHU216HW,2013-06-30 04:47:00,
2013-06-30 00:48:00,76.1,72.6,29.62,ENE,68,0.0,0.0,89,0.10,,,0.08,WUHU216HW,2013-06-30 04:48:00,
2013-06-30 00:49:00,76.1,72.6,29.62,ENE,68,0.0,0.0,89,0.10,,,0.08,WUHU216HW,2013-06-30 04:49:00,
2013-06-30 00:50:00,76.2,73.2,29.62,ENE,68,0.0,0.0,90,0.10,,,0.08,WUHU216HW,2013-06-30 04:50:00,
2013-06-30 00:51:00,76.2,73.2,29.62,ENE,68,0.0,0.0,90,0.10,,,0.08,WUHU216HW,2013-06-30 04:51:00,
2013-06-30 00:52:00,75.7,71.6,29.45,SE,135,0.0,0.0,88,0.00,,,0.00,WUHU216HW,2013-06-30 04:52:00,
2013-06-30 00:53:00,76.2,73.2,29.62,ENE,68,0.0,0.0,90,0.10,,,0.08,WUHU216HW,2013-06-30 04:53:00,
2013-06-30 00:54:00,76.2,73.2,29.62,ENE,68,0.0,0.0,90,0.10,,,0.08,WUHU216HW,2013-06-30 04:54:00,
2013-06-30 00:55:00,76.2,73.2,29.62,ENE,68,0.0,0.0,90,0.10,,,0.08,WUHU216HW,2013-06-30 04:55:00,
2013-06-30 00:56:00,76.4,73.4,29.62,ENE,68,0.0,0.0,90,0.10,,,0.08,WUHU216HW,2013-06-30 04:56:00,
2013-06-30 00:57:00,75.7,71.6,29.45,SE,135,0.0,0.0,88,0.00,,,0.00,WUHU216HW,2013-06-30 04:57:00,
2013-06-30 00:58:00,76.4,73.4,29.62,ENE,68,0.0,0.0,90,0.10,,,0.08,WUHU216HW,2013-06-30 04:58:00,
2013-06-30 00:59:00,76.4,73.4,29.63,ENE,68,0.0,0.0,90,0.10,,,0.10,WUHU216HW,2013-06-30 04:59:00,
2013-06-30 01:00:00,76.4,73.4,29.62,ENE,68,0.0,0.0,90,0.10,,,0.10,WUHU216HW,2013-06-30 05:00:00,
2013-06-30 01:01:00,76.6,73.5,29.62,SE,135,0.0,0.0,90,0.10,,,0.10,WUHU216HW,2013-06-30 05:01:00,
2013-06-30 01:02:00,75.7,71.6,29.45,SE,135,0.0,0.0,88,0.00,,,0.00,WUHU216HW,2013-06-30 05:02:00,
2013-06-30 01:03:00,76.2,73.2,29.62,SE,135,0.0,0.0,90,0.10,,,0.10,WUHU216HW,2013-06-30 05:03:00,
2013-06-30 01:05:00,75.9,72.8,29.62,SE,135,0.0,0.0,90,0.10,,,0.10,WUHU216HW,2013-06-30 05:05:00,
2013-06-30 01:06:00,75.9,72.8,29.62,SE,135,0.0,0.0,90,0.10,,,0.10,WUHU216HW,2013-06-30 05:06:00,
2013-06-30 01:07:00,75.5,71.8,29.46,ESE,113,0.0,0.0,88,0.00,,,0.00,WUHU216HW,2013-06-30 05:07:00,
2013-06-30 01:08:00,75.7,72.3,29.62,SE,135,0.0,0.0,89,0.10,,,0.10,WUHU216HW,2013-06-30 05:08:00,
2013-06-30 01:09:00,75.7,72.3,29.62,SE,135,0.0,0.0,89,0.10,,,0.10,WUHU216HW,2013-06-30 05:09:00,
2013-06-30 01:10:00,75.7,72.3,29.62,SE,135,0.0,0.0,89,0.10,,,0.10,WUHU216HW,2013-06-30 05:10:00,
2013-06-30 01:11:00,75.7,72.3,29.62,SE,135,0.0,0.0,90,0.10,,,0.10,WUHU216HW,2013-06-30 05:11:00,
2013-06-30 01:12:00,75.5,71.8,29.46,ESE,113,0.0,0.0,88,0.00,,,0.00,WUHU216HW,2013-06-30 05:12:00,
2013-06-30 01:13:00,75.7,72.3,29.62,SE,135,0.0,0.0,90,0.10,,,0.10,WUHU216HW,2013-06-30 05:13:00,
2013-06-30 01:14:00,75.7,72.3,29.62,SE,135,0.0,0.0,89,0.10,,,0.10,WUHU216HW,2013-06-30 05:14:00,
2013-06-30 01:15:00,75.7,72.3,29.62,SE,135,0.0,0.0,89,0.10,,,0.10,WUHU216HW,2013-06-30 05:15:00,
2013-06-30 01:16:00,75.7,72.3,29.62,SE,135,0.0,0.0,89,0.10,,,0.10,WUHU216HW,2013-06-30 05:16:00,
2013-06-30 01:17:00,75.5,71.8,29.46,ESE,113,0.0,0.0,88,0.00,,,0.00,WUHU216HW,2013-06-30 05:17:00,
2013-06-30 01:18:00,75.5,71.8,29.46,ESE,113,0.0,0.0,88,0.00,,,0.00,WUHU216HW,2013-06-30 05:18:00,
2013-06-30 01:19:00,75.5,72.1,29.62,SE,135,0.0,0.0,89,0.10,,,0.10,WUHU216HW,2013-06-30 05:19:00,
2013-06-30 01:20:00,75.5,72.1,29.62,SE,135,0.0,0.0,89,0.10,,,0.10,WUHU216HW,2013-06-30 05:20:00,
2013-06-30 01:21:00,75.5,72.1,29.62,SE,135,0.0,0.0,89,0.10,,,0.10,WUHU216HW,2013-06-30 05:21:00,
2013-06-30 01:22:00,75.3,71.9,29.62,SE,135,0.0,0.0,89,0.10,,,0.10,WUHU216HW,2013-06-30 05:22:00,
2013-06-30 01:23:00,75.3,71.6,29.46,ESE,113,0.0,0.0,88,0.00,,,0.00,WUHU216HW,2013-06-30 05:23:00,
2013-06-30 01:24:00,75.3,71.9,29.62,SE,135,0.0,0.0,89,0.10,,,0.10,WUHU216HW,2013-06-30 05:24:00,
2013-06-30 01:25:00,75.3,71.9,29.62,SE,135,0.0,0.0,89,0.10,,,0.10,WUHU216HW,2013-06-30 05:25:00,
2013-06-30 01:26:00,75.3,71.9,29.62,SE,135,0.0,0.0,89,0.10,,,0.10,WUHU216HW,2013-06-30 05:26:00,
2013-06-30 01:27:00,75.3,71.9,29.62,SE,135,0.0,0.0,89,0.10,,,0.10,WUHU216HW,2013-06-30 05:27:00,
2013-06-30 01:28:00,75.3,71.6,29.46,ESE,113,0.0,0.0,88,0.00,,,0.00,WUHU216HW,2013-06-30 05:28:00,
2013-06-30 01:29:00,75.3,71.9,29.62,SE,135,0.0,0.0,89,0.10,,,0.10,WUHU216HW,2013-06-30 05:29:00,
2013-06-30 01:30:00,75.3,71.9,29.62,SE,135,0.0,0.0,89,0.10,,,0.10,WUHU216HW,2013-06-30 05:30:00,
2013-06-30 01:31:00,75.2,71.8,29.62,SE,135,0.0,0.0,89,0.10,,,0.10,WUHU216HW,2013-06-30 05:31:00,
2013-06-30 01:32:00,75.2,71.8,29.62,SE,135,0.0,0.0,89,0.10,,,0.10,WUHU216HW,2013-06-30 05:32:00,
2013-06-30 01:33:00,75.3,71.6,29.46,ESE,113,0.0,0.0,88,0.00,,,0.00,WUHU216HW,2013-06-30 05:33:00,
2013-06-30 01:34:00,75.2,71.8,29.62,SE,135,0.0,0.0,89,0.10,,,0.10,WUHU216HW,2013-06-30 05:34:00,
2013-06-30 01:35:00,75.0,71.6,29.62,SE,135,0.0,0.0,89,0.10,,,0.10,WUHU216HW,2013-06-30 05:35:00,
2013-06-30 01:36:00,75.0,71.6,29.62,SE,135,0.0,0.0,89,0.10,,,0.10,WUHU216HW,2013-06-30 05:36:00,
2013-06-30 01:37:00,75.2,71.8,29.62,SE,135,0.0,0.0,89,0.10,,,0.10,WUHU216HW,2013-06-30 05:37:00,
2013-06-30 01:38:00,75.3,71.6,29.46,SE,135,0.0,0.0,88,0.00,,,0.00,WUHU216HW,2013-06-30 05:38:00,
2013-06-30 01:39:00,75.0,71.6,29.62,SE,135,0.0,0.0,89,0.10,,,0.10,WUHU216HW,2013-06-30 05:39:00,
2013-06-30 01:40:00,75.0,71.6,29.62,SE,135,0.0,0.0,89,0.10,,,0.10,WUHU216HW,2013-06-30 05:40:00,
2013-06-30 01:41:00,75.0,71.6,29.62,SE,135,0.0,0.0,89,0.10,,,0.10,WUHU216HW,2013-06-30 05:41:00,
2013-06-30 01:42:00,75.0,71.6,29.62,SE,135,0.0,0.0,89,0.10,,,0.10,WUHU216HW,2013-06-30 05:42:00,
2013-06-30 01:43:00,75.3,71.6,29.46,SE,135,0.0,0.0,88,0.00,,,0.00,WUHU216HW,2013-06-30 05:43:00,
2013-06-30 01:44:00,75.2,71.8,29.62,SE,135,0.0,0.0,89,0.10,,,0.10,WUHU216HW,2013-06-30 05:44:00,
2013-06-30 01:45:00,75.2,71.8,29.62,SE,135,0.0,0.0,89,0.10,,,0.10,WUHU216HW,2013-06-30 05:45:00,
2013-06-30 01:46:00,75.2,71.8,29.62,SE,135,0.0,0.0,89,0.10,,,0.10,WUHU216HW,2013-06-30 05:46:00,
2013-06-30 01:47:00,75.2,71.8,29.62,SE,135,0.0,0.0,89,0.10,,,0.10,WUHU216HW,2013-06-30 05:47:00,
2013-06-30 01:48:00,75.3,71.6,29.46,East,90,0.0,0.0,89,0.00,,,0.00,WUHU216HW,2013-06-30 05:48:00,
2013-06-30 01:49:00,75.2,71.8,29.62,SE,135,0.0,0.0,89,0.10,,,0.10,WUHU216HW,2013-06-30 05:49:00,
2013-06-30 01:50:00,75.2,71.8,29.62,SE,135,0.0,0.0,89,0.10,,,0.10,WUHU216HW,2013-06-30 05:50:00,
2013-06-30 01:51:00,75.2,71.8,29.62,SE,135,0.0,0.0,89,0.10,,,0.10,WUHU216HW,2013-06-30 05:51:00,
2013-06-30 01:52:00,75.2,71.8,29.62,SE,135,0.0,0.0,89,0.10,,,0.10,WUHU216HW,2013-06-30 05:52:00,
2013-06-30 01:53:00,75.3,71.6,29.46,SE,135,0.0,0.0,89,0.00,,,0.00,WUHU216HW,2013-06-30 05:53:00,
2013-06-30 01:54:00,75.0,71.6,29.62,SE,135,0.0,0.0,89,0.10,,,0.10,WUHU216HW,2013-06-30 05:54:00,
2013-06-30 01:55:00,75.0,71.6,29.62,SE,135,0.0,0.0,89,0.10,,,0.10,WUHU216HW,2013-06-30 05:55:00,
2013-06-30 01:56:00,75.0,71.6,29.62,SE,135,0.0,0.0,89,0.10,,,0.10,WUHU216HW,2013-06-30 05:56:00,
2013-06-30 01:57:00,75.0,71.6,29.62,SE,135,0.0,0.0,89,0.10,,,0.10,WUHU216HW,2013-06-30 05:57:00,
2013-06-30 01:58:00,75.3,71.6,29.46,SE,135,0.0,0.0,89,0.00,,,0.00,WUHU216HW,2013-06-30 05:58:00,
2013-06-30 01:59:00,74.8,71.4,29.62,SE,135,0.0,0.0,89,0.10,,,0.10,WUHU216HW,2013-06-30 05:59:00,
2013-06-30 02:00:00,74.8,71.4,29.62,SE,135,0.0,0.0,89,0.10,,,0.10,WUHU216HW,2013-06-30 06:00:00,
2013-06-30 02:01:00,74.8,71.4,29.62,SE,135,0.0,0.0,89,0.10,,,0.10,WUHU216HW,2013-06-30 06:01:00,
2013-06-30 02:02:00,74.8,71.4,29.62,SE,135,0.0,0.0,89,0.10,,,0.10,WUHU216HW,2013-06-30 06:02:00,
2013-06-30 02:03:00,75.3,71.6,29.46,SE,135,0.0,0.0,89,0.00,,,0.00,WUHU216HW,2013-06-30 06:03:00,
2013-06-30 02:04:00,74.8,71.4,29.62,SE,135,0.0,0.0,89,0.10,,,0.10,WUHU216HW,2013-06-30 06:04:00,
2013-06-30 02:05:00,74.8,71.4,29.62,SE,135,0.0,0.0,89,0.10,,,0.10,WUHU216HW,2013-06-30 06:05:00,
2013-06-30 02:06:00,74.8,71.4,29.62,SE,135,0.0,0.0,89,0.10,,,0.10,WUHU216HW,2013-06-30 06:06:00,
2013-06-30 02:07:00,74.6,71.2,29.62,SE,135,0.0,0.0,89,0.10,,,0.10,WUHU216HW,2013-06-30 06:07:00,
2013-06-30 02:08:00,75.3,71.6,29.46,SE,135,0.0,0.0,89,0.00,,,0.00,WUHU216HW,2013-06-30 06:08:00,
2013-06-30 02:09:00,74.6,71.2,29.62,SE,135,0.0,0.0,89,0.10,,,0.10,WUHU216HW,2013-06-30 06:09:00,
2013-06-30 02:10:00,74.6,71.2,29.62,SE,135,0.0,0.0,89,0.10,,,0.10,WUHU216HW,2013-06-30 06:10:00,
2013-06-30 02:11:00,74.8,71.4,29.62,SE,135,0.0,0.0,89,0.10,,,0.10,WUHU216HW,2013-06-30 06:11:00,
2013-06-30 02:12:00,74.8,71.4,29.62,SE,135,0.0,0.0,89,0.10,,,0.10,WUHU216HW,2013-06-30 06:12:00,
2013-06-30 02:13:00,75.3,71.6,29.45,SE,135,0.0,0.0,89,0.00,,,0.00,WUHU216HW,2013-06-30 06:13:00,
2013-06-30 02:14:00,74.6,71.2,29.62,SE,135,0.0,0.0,89,0.10,,,0.10,WUHU216HW,2013-06-30 06:14:00,
2013-06-30 02:15:00,74.6,71.2,29.62,SE,135,0.0,0.0,89,0.10,,,0.10,WUHU216HW,2013-06-30 06:15:00,
2013-06-30 02:16:00,74.4,71.0,29.62,SE,135,0.0,0.0,89,0.10,,,0.10,WUHU216HW,2013-06-30 06:16:00,
2013-06-30 02:17:00,74.4,71.0,29.62,SE,135,0.0,0.0,89,0.00,,,0.10,WUHU216HW,2013-06-30 06:17:00,
2013-06-30 02:18:00,75.3,71.6,29.45,SE,135,0.0,0.0,89,0.00,,,0.00,WUHU216HW,2013-06-30 06:18:00,
2013-06-30 02:19:00,74.4,71.0,29.62,SE,135,0.0,0.0,89,0.00,,,0.10,WUHU216HW,2013-06-30 06:19:00,
2013-06-30 02:20:00,74.3,70.9,29.62,SE,135,0.0,0.0,89,0.00,,,0.10,WUHU216HW,2013-06-30 06:20:00,
2013-06-30 02:21:00,74.3,70.9,29.62,SE,135,0.0,0.0,89,0.00,,,0.10,WUHU216HW,2013-06-30 06:21:00,
2013-06-30 02:22:00,74.3,70.9,29.62,SE,135,0.0,0.0,90,0.00,,,0.10,WUHU216HW,2013-06-30 06:22:00,
2013-06-30 02:24:00,75.3,71.6,29.46,SE,135,0.0,0.0,89,0.00,,,0.00,WUHU216HW,2013-06-30 06:24:00,
2013-06-30 02:25:00,74.3,70.9,29.62,SE,135,0.0,0.0,89,0.00,,,0.10,WUHU216HW,2013-06-30 06:25:00,
2013-06-30 02:26:00,74.1,70.7,29.62,SE,135,0.0,0.0,89,0.00,,,0.10,WUHU216HW,2013-06-30 06:26:00,
2013-06-30 02:27:00,74.1,70.7,29.62,SE,135,0.0,0.0,89,0.00,,,0.10,WUHU216HW,2013-06-30 06:27:00,
2013-06-30 02:28:00,74.1,70.7,29.62,SE,135,0.0,0.0,89,0.00,,,0.10,WUHU216HW,2013-06-30 06:28:00,
2013-06-30 02:29:00,75.2,71.8,29.45,ESE,113,0.0,0.0,89,0.00,,,0.00,WUHU216HW,2013-06-30 06:29:00,
2013-06-30 02:30:00,74.1,70.7,29.62,SE,135,0.0,0.0,90,0.00,,,0.10,WUHU216HW,2013-06-30 06:30:00,
2013-06-30 02:31:00,74.1,70.7,29.62,SE,135,0.0,0.0,90,0.00,,,0.10,WUHU216HW,2013-06-30 06:31:00,
2013-06-30 02:32:00,74.1,70.7,29.62,SE,135,0.0,0.0,90,0.00,,,0.10,WUHU216HW,2013-06-30 06:32:00,
2013-06-30 02:33:00,74.1,70.7,29.62,SE,135,0.0,0.0,90,0.00,,,0.10,WUHU216HW,2013-06-30 06:33:00,
2013-06-30 02:34:00,75.2,71.8,29.45,ESE,113,0.0,0.0,89,0.00,,,0.00,WUHU216HW,2013-06-30 06:34:00,
2013-06-30 02:35:00,74.1,70.7,29.62,SE,135,0.0,0.0,90,0.00,,,0.10,WUHU216HW,2013-06-30 06:35:00,
2013-06-30 02:36:00,74.1,70.7,29.62,SE,135,0.0,0.0,90,0.00,,,0.10,WUHU216HW,2013-06-30 06:36:00,
2013-06-30 02:37:00,74.1,70.7,29.62,SE,135,0.0,0.0,90,0.00,,,0.10,WUHU216HW,2013-06-30 06:37:00,
2013-06-30 02:38:00,74.1,70.7,29.62,SE,135,0.0,0.0,90,0.00,,,0.10,WUHU216HW,2013-06-30 06:38:00,
2013-06-30 02:39:00,75.2,71.8,29.45,ESE,113,0.0,0.0,89,0.00,,,0.00,WUHU216HW,2013-06-30 06:39:00,
2013-06-30 02:40:00,74.1,70.7,29.62,SE,135,0.0,0.0,90,0.00,,,0.10,WUHU216HW,2013-06-30 06:40:00,
2013-06-30 02:41:00,74.1,70.7,29.62,SE,135,0.0,0.0,90,0.00,,,0.10,WUHU216HW,2013-06-30 06:41:00,
2013-06-30 02:42:00,74.1,70.7,29.62,SE,135,0.0,0.0,90,0.00,,,0.10,WUHU216HW,2013-06-30 06:42:00,
2013-06-30 02:43:00,74.1,70.7,29.61,SE,135,0.0,0.0,90,0.00,,,0.10,WUHU216HW,2013-06-30 06:43:00,
2013-06-30 02:44:00,75.2,71.8,29.45,ESE,113,0.0,0.0,89,0.00,,,0.00,WUHU216HW,2013-06-30 06:44:00,
2013-06-30 02:46:00,73.9,70.8,29.61,SE,135,0.0,0.0,90,0.02,,,0.12,WUHU216HW,2013-06-30 06:46:00,
2013-06-30 02:47:00,73.9,70.8,29.61,SE,135,0.0,0.0,90,0.02,,,0.12,WUHU216HW,2013-06-30 06:47:00,
2013-06-30 02:48:00,73.7,70.7,29.61,SE,135,0.0,0.0,90,0.02,,,0.12,WUHU216HW,2013-06-30 06:48:00,
2013-06-30 02:49:00,75.2,71.8,29.45,SE,135,0.0,0.0,89,0.00,,,0.00,WUHU216HW,2013-06-30 06:49:00,
2013-06-30 02:50:00,73.7,70.7,29.62,SE,135,0.0,0.0,90,0.02,,,0.12,WUHU216HW,2013-06-30 06:50:00,
2013-06-30 02:51:00,73.7,70.7,29.61,SE,135,0.0,0.0,90,0.02,,,0.12,WUHU216HW,2013-06-30 06:51:00,
2013-06-30 02:52:00,73.7,70.7,29.61,SE,135,0.0,0.0,90,0.02,,,0.12,WUHU216HW,2013-06-30 06:52:00,
2013-06-30 02:53:00,73.7,70.7,29.61,SE,135,0.0,0.0,90,0.02,,,0.12,WUHU216HW,2013-06-30 06:53:00,
2013-06-30 02:54:00,75.0,71.6,29.45,SE,135,0.0,0.0,89,0.00,,,0.00,WUHU216HW,2013-06-30 06:54:00,
2013-06-30 02:55:00,73.7,70.7,29.61,SE,135,0.0,0.0,90,0.02,,,0.12,WUHU216HW,2013-06-30 06:55:00,
2013-06-30 02:56:00,73.7,70.7,29.61,SE,135,0.0,0.0,90,0.02,,,0.12,WUHU216HW,2013-06-30 06:56:00,
2013-06-30 02:57:00,73.7,70.7,29.61,SE,135,0.0,0.0,90,0.04,,,0.15,WUHU216HW,2013-06-30 06:57:00,
2013-06-30 02:58:00,73.7,70.7,29.61,SE,135,0.0,0.0,90,0.04,,,0.15,WUHU216HW,2013-06-30 06:58:00,
2013-06-30 02:59:00,75.0,71.6,29.45,SE,135,0.0,0.0,89,0.00,,,0.00,WUHU216HW,2013-06-30 06:59:00,
2013-06-30 03:00:00,73.7,70.7,29.61,SE,135,0.0,0.0,90,0.04,,,0.15,WUHU216HW,2013-06-30 07:00:00,
2013-06-30 03:01:00,73.5,70.5,29.61,SE,135,0.0,0.0,90,0.04,,,0.15,WUHU216HW,2013-06-30 07:01:00,
2013-06-30 03:02:00,73.5,70.5,29.61,SE,135,0.0,0.0,90,0.04,,,0.15,WUHU216HW,2013-06-30 07:02:00,
2013-06-30 03:03:00,73.5,70.5,29.61,SE,135,0.0,0.0,90,0.04,,,0.15,WUHU216HW,2013-06-30 07:03:00,
2013-06-30 03:04:00,75.0,71.6,29.44,SE,135,0.0,0.0,89,0.00,,,0.00,WUHU216HW,2013-06-30 07:04:00,
2013-06-30 03:05:00,73.5,70.5,29.62,SE,135,0.0,0.0,90,0.04,,,0.15,WUHU216HW,2013-06-30 07:05:00,
2013-06-30 03:06:00,73.5,70.5,29.62,SE,135,0.0,0.0,90,0.04,,,0.15,WUHU216HW,2013-06-30 07:06:00,
2013-06-30 03:07:00,73.5,70.5,29.62,SE,135,0.0,0.0,90,0.04,,,0.15,WUHU216HW,2013-06-30 07:07:00,
2013-06-30 03:08:00,73.5,70.5,29.61,SE,135,0.0,0.0,90,0.06,,,0.17,WUHU216HW,2013-06-30 07:08:00,
2013-06-30 03:09:00,75.0,71.6,29.44,SE,135,0.0,0.0,89,0.00,,,0.00,WUHU216HW,2013-06-30 07:09:00,
2013-06-30 03:10:00,73.5,70.5,29.61,SE,135,0.0,0.0,90,0.06,,,0.17,WUHU216HW,2013-06-30 07:10:00,
2013-06-30 03:11:00,73.7,70.7,29.62,SE,135,0.0,0.0,90,0.06,,,0.17,WUHU216HW,2013-06-30 07:11:00,
2013-06-30 03:12:00,73.7,70.7,29.62,SE,135,0.0,0.0,90,0.06,,,0.17,WUHU216HW,2013-06-30 07:12:00,
2013-06-30 03:13:00,73.7,70.7,29.61,SE,135,0.0,0.0,90,0.06,,,0.17,WUHU216HW,2013-06-30 07:13:00,
2013-06-30 03:14:00,75.0,71.6,29.44,SE,135,0.0,0.0,89,0.00,,,0.00,WUHU216HW,2013-06-30 07:14:00,
2013-06-30 03:15:00,73.7,70.7,29.62,SE,135,0.0,0.0,90,0.06,,,0.17,WUHU216HW,2013-06-30 07:15:00,
2013-06-30 03:16:00,73.5,70.5,29.62,SE,135,0.0,0.0,90,0.06,,,0.17,WUHU216HW,2013-06-30 07:16:00,
2013-06-30 03:17:00,73.5,70.5,29.62,SE,135,0.0,0.0,90,0.06,,,0.17,WUHU216HW,2013-06-30 07:17:00,
2013-06-30 03:18:00,73.7,70.7,29.62,SE,135,0.0,0.0,90,0.08,,,0.19,WUHU216HW,2013-06-30 07:18:00,
2013-06-30 03:19:00,75.0,71.6,29.44,SE,135,0.0,0.0,89,0.00,,,0.00,WUHU216HW,2013-06-30 07:19:00,
2013-06-30 03:20:00,73.5,70.5,29.62,SE,135,0.0,0.0,90,0.08,,,0.19,WUHU216HW,2013-06-30 07:20:00,
2013-06-30 03:21:00,73.5,70.5,29.62,SE,135,0.0,0.0,90,0.08,,,0.19,WUHU216HW,2013-06-30 07:21:00,
2013-06-30 03:22:00,73.5,70.5,29.62,SE,135,0.0,0.0,90,0.08,,,0.19,WUHU216HW,2013-06-30 07:22:00,
2013-06-30 03:23:00,73.5,70.5,29.62,SE,135,0.0,0.0,90,0.08,,,0.19,WUHU216HW,2013-06-30 07:23:00,
2013-06-30 03:24:00,75.0,71.6,29.43,SE,135,0.0,0.0,89,0.00,,,0.00,WUHU216HW,2013-06-30 07:24:00,
2013-06-30 03:25:00,73.4,70.3,29.62,SE,135,0.0,0.0,90,0.08,,,0.19,WUHU216HW,2013-06-30 07:25:00,
2013-06-30 03:26:00,73.4,70.3,29.62,SE,135,0.0,0.0,90,0.08,,,0.19,WUHU216HW,2013-06-30 07:26:00,
2013-06-30 03:27:00,73.4,70.3,29.62,SE,135,0.0,0.0,90,0.08,,,0.19,WUHU216HW,2013-06-30 07:27:00,
2013-06-30 03:28:00,73.4,70.3,29.62,SE,135,0.0,0.0,90,0.08,,,0.19,WUHU216HW,2013-06-30 07:28:00,
2013-06-30 03:29:00,75.0,71.6,29.43,SE,135,0.0,0.0,89,0.00,,,0.00,WUHU216HW,2013-06-30 07:29:00,
2013-06-30 03:30:00,73.4,70.3,29.62,SE,135,0.0,0.0,90,0.10,,,0.21,WUHU216HW,2013-06-30 07:30:00,
2013-06-30 03:31:00,73.4,70.3,29.63,SE,135,0.0,0.0,90,0.10,,,0.21,WUHU216HW,2013-06-30 07:31:00,
2013-06-30 03:32:00,73.4,70.3,29.62,SE,135,0.0,0.0,90,0.10,,,0.21,WUHU216HW,2013-06-30 07:32:00,
2013-06-30 03:33:00,73.4,70.3,29.63,SE,135,0.0,0.0,90,0.10,,,0.21,WUHU216HW,2013-06-30 07:33:00,
2013-06-30 03:34:00,75.0,71.6,29.44,SE,135,0.0,0.0,89,0.00,,,0.00,WUHU216HW,2013-06-30 07:34:00,
2013-06-30 03:35:00,73.5,70.8,29.63,SE,135,0.0,0.0,91,0.10,,,0.21,WUHU216HW,2013-06-30 07:35:00,
2013-06-30 03:36:00,73.5,70.8,29.63,SE,135,0.0,0.0,91,0.10,,,0.21,WUHU216HW,2013-06-30 07:36:00,
2013-06-30 03:37:00,73.5,70.8,29.63,SE,135,0.0,0.0,91,0.10,,,0.21,WUHU216HW,2013-06-30 07:37:00,
2013-06-30 03:38:00,73.2,70.4,29.63,SE,135,0.0,0.0,91,0.10,,,0.21,WUHU216HW,2013-06-30 07:38:00,
2013-06-30 03:39:00,75.0,71.6,29.43,SE,135,0.0,0.0,89,0.00,,,0.00,WUHU216HW,2013-06-30 07:39:00,
2013-06-30 03:40:00,73.2,70.4,29.63,SE,135,0.0,0.0,91,0.12,,,0.23,WUHU216HW,2013-06-30 07:40:00,
2013-06-30 03:41:00,73.2,70.4,29.63,SE,135,0.0,0.0,91,0.12,,,0.23,WUHU216HW,2013-06-30 07:41:00,
2013-06-30 03:42:00,73.4,70.6,29.63,SE,135,0.0,0.0,91,0.12,,,0.23,WUHU216HW,2013-06-30 07:42:00,
2013-06-30 03:43:00,73.4,70.6,29.63,SE,135,0.0,0.0,91,0.12,,,0.23,WUHU216HW,2013-06-30 07:43:00,
2013-06-30 03:44:00,75.0,71.6,29.43,SE,135,0.0,0.0,89,0.00,,,0.00,WUHU216HW,2013-06-30 07:44:00,
2013-06-30 03:45:00,73.2,70.4,29.63,SE,135,0.0,0.0,91,0.12,,,0.23,WUHU216HW,2013-06-30 07:45:00,
2013-06-30 03:46:00,73.2,70.4,29.63,SE,135,0.0,0.0,91,0.12,,,0.23,WUHU216HW,2013-06-30 07:46:00,
2013-06-30 03:47:00,73.2,70.4,29.63,SE,135,0.0,0.0,91,0.12,,,0.23,WUHU216HW,2013-06-30 07:47:00,
2013-06-30 03:48:00,73.4,70.6,29.63,SE,135,0.0,0.0,91,0.12,,,0.23,WUHU216HW,2013-06-30 07:48:00,
2013-06-30 03:49:00,74.8,71.4,29.43,NE,45,0.0,0.0,89,0.00,,,0.00,WUHU216HW,2013-06-30 07:49:00,
2013-06-30 03:50:00,73.4,70.6,29.63,SE,135,0.0,0.0,91,0.12,,,0.23,WUHU216HW,2013-06-30 07:50:00,
2013-06-30 03:51:00,73.4,70.6,29.63,SE,135,0.0,0.0,91,0.12,,,0.25,WUHU216HW,2013-06-30 07:51:00,
2013-06-30 03:52:00,73.4,70.6,29.63,SE,135,0.0,0.0,91,0.12,,,0.25,WUHU216HW,2013-06-30 07:52:00,
2013-06-30 03:53:00,73.4,70.6,29.63,SE,135,0.0,0.0,91,0.12,,,0.25,WUHU216HW,2013-06-30 07:53:00,
2013-06-30 03:54:00,74.8,71.4,29.43,NE,45,0.0,0.0,89,0.00,,,0.00,WUHU216HW,2013-06-30 07:54:00,
2013-06-30 03:55:00,73.2,70.4,29.63,SE,135,0.0,0.0,91,0.12,,,0.25,WUHU216HW,2013-06-30 07:55:00,
2013-06-30 03:56:00,73.2,70.4,29.63,SE,135,0.0,0.0,91,0.12,,,0.25,WUHU216HW,2013-06-30 07:56:00,
2013-06-30 03:57:00,73.4,70.6,29.63,SE,135,0.0,0.0,91,0.12,,,0.25,WUHU216HW,2013-06-30 07:57:00,
2013-06-30 03:58:00,73.4,70.6,29.63,SE,135,0.0,0.0,91,0.12,,,0.25,WUHU216HW,2013-06-30 07:58:00,
2013-06-30 03:59:00,74.8,71.4,29.43,ENE,68,0.0,0.0,89,0.00,,,0.00,WUHU216HW,2013-06-30 07:59:00,
2013-06-30 04:00:00,73.2,70.4,29.63,SE,135,0.0,0.0,91,0.12,,,0.25,WUHU216HW,2013-06-30 08:00:00,
2013-06-30 04:01:00,73.2,70.4,29.63,SE,135,0.0,0.0,91,0.12,,,0.25,WUHU216HW,2013-06-30 08:01:00,
2013-06-30 04:02:00,73.2,70.4,29.63,SE,135,0.0,0.0,91,0.12,,,0.25,WUHU216HW,2013-06-30 08:02:00,
2013-06-30 04:03:00,73.2,70.4,29.62,SE,135,0.0,0.0,91,0.12,,,0.25,WUHU216HW,2013-06-30 08:03:00,
2013-06-30 04:04:00,74.8,71.4,29.43,ENE,68,0.0,0.0,89,0.00,,,0.00,WUHU216HW,2013-06-30 08:04:00,
2013-06-30 04:05:00,73.2,70.4,29.62,SE,135,0.0,0.0,91,0.12,,,0.25,WUHU216HW,2013-06-30 08:05:00,
2013-06-30 04:06:00,73.2,70.4,29.62,SE,135,0.0,0.0,91,0.12,,,0.25,WUHU216HW,2013-06-30 08:06:00,
2013-06-30 04:07:00,73.2,70.4,29.62,SE,135,0.0,0.0,91,0.12,,,0.25,WUHU216HW,2013-06-30 08:07:00,
2013-06-30 04:08:00,73.2,70.4,29.62,SE,135,0.0,0.0,91,0.12,,,0.25,WUHU216HW,2013-06-30 08:08:00,
2013-06-30 04:09:00,73.2,70.4,29.62,SE,135,0.0,0.0,91,0.12,,,0.25,WUHU216HW,2013-06-30 08:09:00,
2013-06-30 04:10:00,74.8,71.4,29.44,ENE,68,0.0,0.0,89,0.00,,,0.00,WUHU216HW,2013-06-30 08:10:00,
2013-06-30 04:11:00,73.2,70.4,29.62,SE,135,0.0,0.0,91,0.12,,,0.25,WUHU216HW,2013-06-30 08:11:00,
2013-06-30 04:12:00,73.2,70.4,29.62,SE,135,0.0,0.0,91,0.12,,,0.25,WUHU216HW,2013-06-30 08:12:00,
2013-06-30 04:13:00,73.2,70.4,29.62,SE,135,0.0,0.0,91,0.12,,,0.25,WUHU216HW,2013-06-30 08:13:00,
2013-06-30 04:14:00,73.2,70.4,29.62,SE,135,0.0,0.0,91,0.12,,,0.25,WUHU216HW,2013-06-30 08:14:00,
2013-06-30 04:15:00,74.8,71.4,29.43,ENE,68,0.0,0.0,89,0.00,,,0.00,WUHU216HW,2013-06-30 08:15:00,
2013-06-30 04:16:00,73.0,70.2,29.61,SE,135,0.0,0.0,91,0.12,,,0.25,WUHU216HW,2013-06-30 08:16:00,
2013-06-30 04:17:00,73.0,70.2,29.61,SE,135,0.0,0.0,91,0.06,,,0.25,WUHU216HW,2013-06-30 08:17:00,
2013-06-30 04:18:00,73.0,70.2,29.61,SE,135,0.0,0.0,91,0.06,,,0.25,WUHU216HW,2013-06-30 08:18:00,
2013-06-30 04:19:00,73.2,70.4,29.61,SE,135,0.0,0.0,91,0.06,,,0.25,WUHU216HW,2013-06-30 08:19:00,
2013-06-30 04:20:00,74.8,71.4,29.43,ENE,68,0.0,0.0,89,0.00,,,0.00,WUHU216HW,2013-06-30 08:20:00,
2013-06-30 04:21:00,73.2,70.4,29.61,ENE,68,0.0,0.0,91,0.06,,,0.25,WUHU216HW,2013-06-30 08:21:00,
2013-06-30 04:22:00,73.2,70.4,29.61,ENE,68,0.0,0.0,91,0.06,,,0.25,WUHU216HW,2013-06-30 08:22:00,
2013-06-30 04:23:00,73.2,70.4,29.61,ENE,68,0.0,0.0,91,0.06,,,0.25,WUHU216HW,2013-06-30 08:23:00,
2013-06-30 04:24:00,73.0,70.2,29.61,ENE,68,0.0,0.0,91,0.06,,,0.25,WUHU216HW,2013-06-30 08:24:00,
2013-06-30 04:25:00,74.8,71.4,29.43,ENE,68,0.0,0.0,89,0.00,,,0.00,WUHU216HW,2013-06-30 08:25:00,
2013-06-30 04:26:00,73.0,70.2,29.62,ENE,68,0.0,0.0,91,0.06,,,0.25,WUHU216HW,2013-06-30 08:26:00,
2013-06-30 04:27:00,73.2,70.4,29.62,ENE,68,0.0,0.0,91,0.06,,,0.25,WUHU216HW,2013-06-30 08:27:00,
2013-06-30 04:28:00,73.2,70.4,29.61,ENE,68,0.0,0.0,91,0.06,,,0.25,WUHU216HW,2013-06-30 08:28:00,
2013-06-30 04:29:00,73.0,70.2,29.62,ENE,68,0.0,0.0,91,0.06,,,0.25,WUHU216HW,2013-06-30 08:29:00,
2013-06-30 04:30:00,74.8,71.4,29.43,ESE,113,0.0,0.0,89,0.00,,,0.00,WUHU216HW,2013-06-30 08:30:00,
2013-06-30 04:31:00,73.0,70.2,29.61,ENE,68,0.0,0.0,91,0.06,,,0.25,WUHU216HW,2013-06-30 08:31:00,
2013-06-30 04:32:00,73.0,70.2,29.61,ENE,68,0.0,0.0,91,0.06,,,0.25,WUHU216HW,2013-06-30 08:32:00,
2013-06-30 04:33:00,73.0,70.2,29.61,ENE,68,0.0,0.0,91,0.06,,,0.25,WUHU216HW,2013-06-30 08:33:00,
2013-06-30 04:34:00,73.0,70.2,29.61,ENE,68,0.0,0.0,91,0.06,,,0.25,WUHU216HW,2013-06-30 08:34:00,
2013-06-30 04:35:00,74.8,71.4,29.44,ESE,113,0.0,0.0,89,0.00,,,0.00,WUHU216HW,2013-06-30 08:35:00,
2013-06-30 04:36:00,73.0,70.2,29.61,ENE,68,0.0,0.0,91,0.06,,,0.25,WUHU216HW,2013-06-30 08:36:00,
2013-06-30 04:37:00,73.0,70.2,29.61,ENE,68,0.0,0.0,91,0.06,,,0.25,WUHU216HW,2013-06-30 08:37:00,
2013-06-30 04:38:00,73.0,70.2,29.61,ENE,68,0.0,0.0,91,0.06,,,0.25,WUHU216HW,2013-06-30 08:38:00,
2013-06-30 04:39:00,73.0,70.2,29.60,ENE,68,0.0,0.0,91,0.06,,,0.25,WUHU216HW,2013-06-30 08:39:00,
2013-06-30 04:40:00,74.8,71.4,29.44,ESE,113,0.0,0.0,89,0.00,,,0.00,WUHU216HW,2013-06-30 08:40:00,
2013-06-30 04:41:00,73.0,70.2,29.60,ENE,68,0.0,0.0,91,0.06,,,0.25,WUHU216HW,2013-06-30 08:41:00,
2013-06-30 04:42:00,73.0,70.2,29.61,ENE,68,0.0,0.0,91,0.06,,,0.25,WUHU216HW,2013-06-30 08:42:00,
2013-06-30 04:43:00,73.0,70.2,29.61,ENE,68,0.0,0.0,91,0.06,,,0.25,WUHU216HW,2013-06-30 08:43:00,
2013-06-30 04:44:00,73.0,70.2,29.60,ENE,68,0.0,0.0,91,0.06,,,0.25,WUHU216HW,2013-06-30 08:44:00,
2013-06-30 04:45:00,74.8,71.4,29.44,ESE,113,0.0,0.0,89,0.00,,,0.00,WUHU216HW,2013-06-30 08:45:00,
2013-06-30 04:46:00,73.0,70.2,29.60,ENE,68,0.0,0.0,91,0.06,,,0.25,WUHU216HW,2013-06-30 08:46:00,
2013-06-30 04:47:00,73.0,70.2,29.60,ENE,68,0.0,0.0,91,0.06,,,0.25,WUHU216HW,2013-06-30 08:47:00,
2013-06-30 04:48:00,73.0,70.2,29.60,ENE,68,0.0,0.0,91,0.06,,,0.25,WUHU216HW,2013-06-30 08:48:00,
2013-06-30 04:49:00,73.0,70.2,29.60,ENE,68,0.0,0.0,91,0.06,,,0.25,WUHU216HW,2013-06-30 08:49:00,
2013-06-30 04:50:00,74.8,71.4,29.44,ESE,113,0.0,0.0,89,0.00,,,0.00,WUHU216HW,2013-06-30 08:50:00,
2013-06-30 04:51:00,73.0,70.2,29.60,ENE,68,0.0,0.0,91,0.06,,,0.25,WUHU216HW,2013-06-30 08:51:00,
2013-06-30 04:52:00,73.0,70.2,29.60,ENE,68,0.0,0.0,91,0.06,,,0.25,WUHU216HW,2013-06-30 08:52:00,
2013-06-30 04:53:00,73.0,70.2,29.60,ENE,68,0.0,0.0,91,0.06,,,0.25,WUHU216HW,2013-06-30 08:53:00,
2013-06-30 04:54:00,73.0,70.2,29.60,ENE,68,0.0,0.0,91,0.06,,,0.25,WUHU216HW,2013-06-30 08:54:00,
2013-06-30 04:55:00,74.8,71.4,29.44,ESE,113,0.0,0.0,89,0.00,,,0.00,WUHU216HW,2013-06-30 08:55:00,
2013-06-30 04:57:00,73.0,70.2,29.60,ENE,68,0.0,0.0,91,0.06,,,0.25,WUHU216HW,2013-06-30 08:57:00,
2013-06-30 04:58:00,73.0,70.2,29.60,ENE,68,0.0,0.0,91,0.06,,,0.25,WUHU216HW,2013-06-30 08:58:00,
2013-06-30 04:59:00,73.0,70.2,29.59,ENE,68,0.0,0.0,91,0.06,,,0.25,WUHU216HW,2013-06-30 08:59:00,
2013-06-30 05:00:00,74.8,71.4,29.45,ESE,113,0.0,0.0,89,0.00,,,0.00,WUHU216HW,2013-06-30 09:00:00,
2013-06-30 05:01:00,73.0,70.2,29.59,ENE,68,0.0,0.0,91,0.06,,,0.25,WUHU216HW,2013-06-30 09:01:00,
2013-06-30 05:02:00,72.8,70.1,29.59,ENE,68,0.0,0.0,91,0.06,,,0.25,WUHU216HW,2013-06-30 09:02:00,
2013-06-30 05:03:00,73.0,70.2,29.59,ENE,68,0.0,0.0,91,0.06,,,0.25,WUHU216HW,2013-06-30 09:03:00,
2013-06-30 05:04:00,73.0,70.2,29.59,ENE,68,0.0,0.0,91,0.06,,,0.25,WUHU216HW,2013-06-30 09:04:00,
2013-06-30 05:05:00,74.8,71.4,29.45,ESE,113,0.0,0.0,88,0.00,,,0.00,WUHU216HW,2013-06-30 09:05:00,
2013-06-30 05:06:00,73.0,70.2,29.60,ENE,68,0.0,0.0,91,0.06,,,0.25,WUHU216HW,2013-06-30 09:06:00,
2013-06-30 05:07:00,73.0,70.2,29.59,ENE,68,0.0,0.0,91,0.06,,,0.25,WUHU216HW,2013-06-30 09:07:00,
2013-06-30 05:08:00,73.0,70.2,29.59,ENE,68,0.0,0.0,91,0.06,,,0.25,WUHU216HW,2013-06-30 09:08:00,
2013-06-30 05:09:00,73.0,70.2,29.59,ENE,68,0.0,0.0,91,0.06,,,0.25,WUHU216HW,2013-06-30 09:09:00,
2013-06-30 05:10:00,74.4,70.7,29.45,ESE,113,0.0,0.0,88,0.00,,,0.00,WUHU216HW,2013-06-30 09:10:00,
2013-06-30 05:11:00,73.0,70.2,29.60,ENE,68,0.0,0.0,91,0.06,,,0.25,WUHU216HW,2013-06-30 09:11:00,
2013-06-30 05:12:00,73.0,70.2,29.60,ENE,68,0.0,0.0,91,0.06,,,0.25,WUHU216HW,2013-06-30 09:12:00,
2013-06-30 05:13:00,73.0,70.2,29.60,ENE,68,0.0,0.0,91,0.06,,,0.25,WUHU216HW,2013-06-30 09:13:00,
2013-06-30 05:14:00,73.0,70.2,29.60,ENE,68,0.0,0.0,91,0.06,,,0.25,WUHU216HW,2013-06-30 09:14:00,
2013-06-30 05:15:00,74.4,70.7,29.45,ESE,113,0.0,0.0,89,0.00,,,0.00,WUHU216HW,2013-06-30 09:15:00,
2013-06-30 05:16:00,73.0,70.2,29.60,ENE,68,0.0,0.0,91,0.06,,,0.25,WUHU216HW,2013-06-30 09:16:00,
2013-06-30 05:17:00,72.8,70.1,29.60,ENE,68,0.0,0.0,91,0.00,,,0.25,WUHU216HW,2013-06-30 09:17:00,
2013-06-30 05:18:00,73.0,70.2,29.60,ENE,68,0.0,0.0,91,0.00,,,0.25,WUHU216HW,2013-06-30 09:18:00,
2013-06-30 05:19:00,73.0,70.2,29.60,ENE,68,0.0,0.0,91,0.00,,,0.25,WUHU216HW,2013-06-30 09:19:00,
2013-06-30 05:20:00,74.4,71.0,29.45,SE,135,0.0,0.0,89,0.00,,,0.00,WUHU216HW,2013-06-30 09:20:00,
2013-06-30 05:21:00,73.0,70.2,29.61,ENE,68,0.0,0.0,91,0.00,,,0.25,WUHU216HW,2013-06-30 09:21:00,
2013-06-30 05:22:00,73.0,70.2,29.61,ENE,68,0.0,0.0,91,0.00,,,0.25,WUHU216HW,2013-06-30 09:22:00,
2013-06-30 05:23:00,72.8,70.1,29.60,ENE,68,0.0,0.0,91,0.00,,,0.25,WUHU216HW,2013-06-30 09:23:00,
2013-06-30 05:24:00,72.8,70.1,29.60,ENE,68,0.0,0.0,91,0.00,,,0.25,WUHU216HW,2013-06-30 09:24:00,
2013-06-30 05:25:00,74.4,71.0,29.45,SE,135,0.0,0.0,89,0.00,,,0.00,WUHU216HW,2013-06-30 09:25:00,
2013-06-30 05:26:00,72.8,70.1,29.60,ENE,68,0.0,0.0,91,0.00,,,0.25,WUHU216HW,2013-06-30 09:26:00,
2013-06-30 05:27:00,72.8,70.1,29.61,ENE,68,0.0,0.0,91,0.00,,,0.25,WUHU216HW,2013-06-30 09:27:00,
2013-06-30 05:28:00,72.8,70.1,29.61,ENE,68,0.0,0.0,91,0.00,,,0.25,WUHU216HW,2013-06-30 09:28:00,
2013-06-30 05:29:00,72.8,70.1,29.61,ENE,68,0.0,0.0,91,0.00,,,0.25,WUHU216HW,2013-06-30 09:29:00,
2013-06-30 05:30:00,74.4,71.0,29.45,SE,135,0.0,0.0,89,0.00,,,0.00,WUHU216HW,2013-06-30 09:30:00,
2013-06-30 05:31:00,72.8,70.1,29.61,ENE,68,0.0,0.0,91,0.00,,,0.25,WUHU216HW,2013-06-30 09:31:00,
2013-06-30 05:32:00,73.0,70.2,29.61,ENE,68,0.0,0.0,91,0.00,,,0.25,WUHU216HW,2013-06-30 09:32:00,
2013-06-30 05:33:00,73.0,70.2,29.61,ENE,68,0.0,0.0,91,0.00,,,0.25,WUHU216HW,2013-06-30 09:33:00,
2013-06-30 05:34:00,73.0,70.2,29.61,ENE,68,0.0,0.0,91,0.00,,,0.25,WUHU216HW,2013-06-30 09:34:00,
2013-06-30 05:35:00,74.4,71.0,29.46,SE,135,0.0,0.0,89,0.00,,,0.00,WUHU216HW,2013-06-30 09:35:00,
2013-06-30 05:36:00,73.0,70.2,29.61,ENE,68,0.0,0.0,91,0.00,,,0.25,WUHU216HW,2013-06-30 09:36:00,
2013-06-30 05:37:00,73.0,70.2,29.61,ENE,68,0.0,0.0,91,0.00,,,0.25,WUHU216HW,2013-06-30 09:37:00,
2013-06-30 05:38:00,73.0,70.2,29.61,ENE,68,0.0,0.0,91,0.00,,,0.25,WUHU216HW,2013-06-30 09:38:00,
2013-06-30 05:39:00,73.0,70.2,29.61,ENE,68,0.0,0.0,91,0.00,,,0.25,WUHU216HW,2013-06-30 09:39:00,
2013-06-30 05:40:00,74.4,71.0,29.46,SE,135,0.0,0.0,89,0.00,,,0.00,WUHU216HW,2013-06-30 09:40:00,
2013-06-30 05:41:00,73.0,70.2,29.61,ENE,68,0.0,0.0,91,0.00,,,0.25,WUHU216HW,2013-06-30 09:41:00,
2013-06-30 05:42:00,73.0,70.2,29.61,ENE,68,0.0,0.0,91,0.00,,,0.25,WUHU216HW,2013-06-30 09:42:00,
2013-06-30 05:43:00,73.0,70.2,29.61,ENE,68,0.0,0.0,91,0.00,,,0.25,WUHU216HW,2013-06-30 09:43:00,
2013-06-30 05:44:00,73.0,70.2,29.61,ENE,68,0.0,0.0,91,0.00,,,0.25,WUHU216HW,2013-06-30 09:44:00,
2013-06-30 05:45:00,74.4,71.0,29.46,SE,135,0.0,0.0,89,0.00,,,0.00,WUHU216HW,2013-06-30 09:45:00,
2013-06-30 05:46:00,73.0,70.2,29.61,ENE,68,0.0,0.0,91,0.00,,,0.25,WUHU216HW,2013-06-30 09:46:00,
2013-06-30 05:47:00,73.0,70.2,29.62,ENE,68,0.0,0.0,91,0.00,,,0.25,WUHU216HW,2013-06-30 09:47:00,
2013-06-30 05:48:00,73.0,70.2,29.61,ENE,68,0.0,0.0,91,0.00,,,0.25,WUHU216HW,2013-06-30 09:48:00,
2013-06-30 05:49:00,73.0,70.2,29.61,ENE,68,0.0,0.0,91,0.00,,,0.25,WUHU216HW,2013-06-30 09:49:00,
2013-06-30 05:50:00,74.3,70.9,29.46,SE,135,0.0,0.0,89,0.00,,,0.00,WUHU216HW,2013-06-30 09:50:00,
2013-06-30 05:51:00,73.0,70.2,29.62,ENE,68,0.0,0.0,91,0.00,,,0.25,WUHU216HW,2013-06-30 09:51:00,
2013-06-30 05:52:00,73.0,70.2,29.61,ENE,68,0.0,0.0,91,0.00,,,0.25,WUHU216HW,2013-06-30 09:52:00,
2013-06-30 05:53:00,73.0,70.2,29.61,ENE,68,0.0,0.0,91,0.00,,,0.25,WUHU216HW,2013-06-30 09:53:00,
2013-06-30 05:54:00,73.0,70.2,29.61,ENE,68,0.0,0.0,91,0.00,,,0.25,WUHU216HW,2013-06-30 09:54:00,
2013-06-30 05:55:00,74.3,70.9,29.47,SE,135,0.0,0.0,89,0.00,,,0.00,WUHU216HW,2013-06-30 09:55:00,
2013-06-30 05:56:00,72.8,70.1,29.62,ENE,68,0.0,0.0,91,0.00,,,0.25,WUHU216HW,2013-06-30 09:56:00,
2013-06-30 05:57:00,72.8,70.1,29.62,ENE,68,0.0,0.0,91,0.00,,,0.25,WUHU216HW,2013-06-30 09:57:00,
2013-06-30 05:58:00,72.8,70.1,29.62,ENE,68,0.0,0.0,92,0.00,,,0.25,WUHU216HW,2013-06-30 09:58:00,
2013-06-30 05:59:00,72.8,70.1,29.62,ENE,68,0.0,0.0,92,0.00,,,0.25,WUHU216HW,2013-06-30 09:59:00,
2013-06-30 06:00:00,74.1,70.7,29.47,SE,135,0.0,0.0,89,0.00,,,0.00,WUHU216HW,2013-06-30 10:00:00,
2013-06-30 06:01:00,72.6,69.9,29.62,ENE,68,0.0,0.0,91,0.00,,,0.25,WUHU216HW,2013-06-30 10:01:00,
2013-06-30 06:02:00,72.6,69.9,29.62,ENE,68,0.0,0.0,92,0.00,,,0.25,WUHU216HW,2013-06-30 10:02:00,
2013-06-30 06:03:00,72.6,69.9,29.63,ENE,68,0.0,0.0,92,0.00,,,0.25,WUHU216HW,2013-06-30 10:03:00,
2013-06-30 06:04:00,72.6,69.9,29.63,ENE,68,0.0,0.0,92,0.00,,,0.25,WUHU216HW,2013-06-30 10:04:00,
2013-06-30 06:05:00,74.1,70.7,29.46,SE,135,0.0,0.0,89,0.00,,,0.00,WUHU216HW,2013-06-30 10:05:00,
2013-06-30 06:06:00,72.6,69.9,29.63,ENE,68,0.0,0.0,92,0.00,,,0.25,WUHU216HW,2013-06-30 10:06:00,
2013-06-30 06:07:00,72.6,69.9,29.63,ENE,68,0.0,0.0,92,0.00,,,0.25,WUHU216HW,2013-06-30 10:07:00,
2013-06-30 06:08:00,72.6,69.9,29.64,ENE,68,0.0,0.0,92,0.00,,,0.25,WUHU216HW,2013-06-30 10:08:00,
2013-06-30 06:09:00,72.6,69.9,29.64,ENE,68,0.0,0.0,92,0.00,,,0.25,WUHU216HW,2013-06-30 10:09:00,
2013-06-30 06:10:00,74.1,70.7,29.46,SE,135,0.0,0.0,89,0.00,,,0.00,WUHU216HW,2013-06-30 10:10:00,
2013-06-30 06:11:00,72.6,69.9,29.64,ENE,68,0.0,0.0,92,0.00,,,0.25,WUHU216HW,2013-06-30 10:11:00,
2013-06-30 06:12:00,72.6,69.9,29.63,ENE,68,0.0,0.0,92,0.00,,,0.25,WUHU216HW,2013-06-30 10:12:00,
2013-06-30 06:13:00,72.6,69.9,29.64,ENE,68,0.0,0.0,92,0.00,,,0.25,WUHU216HW,2013-06-30 10:13:00,
2013-06-30 06:14:00,72.6,69.9,29.64,ENE,68,0.0,0.0,92,0.00,,,0.25,WUHU216HW,2013-06-30 10:14:00,
2013-06-30 06:15:00,72.6,69.9,29.64,ENE,68,0.0,0.0,92,0.00,,,0.25,WUHU216HW,2013-06-30 10:15:00,
2013-06-30 06:16:00,73.9,70.5,29.47,SE,135,0.0,0.0,89,0.00,,,0.00,WUHU216HW,2013-06-30 10:16:00,
2013-06-30 06:17:00,72.6,69.9,29.64,ENE,68,0.0,0.0,92,0.00,,,0.25,WUHU216HW,2013-06-30 10:17:00,
2013-06-30 06:18:00,72.6,69.9,29.64,ENE,68,0.0,0.0,92,0.00,,,0.25,WUHU216HW,2013-06-30 10:18:00,
2013-06-30 06:19:00,72.6,69.9,29.64,ENE,68,0.0,0.0,92,0.00,,,0.25,WUHU216HW,2013-06-30 10:19:00,
2013-06-30 06:20:00,72.6,69.9,29.64,ENE,68,0.0,0.0,92,0.00,,,0.25,WUHU216HW,2013-06-30 10:20:00,
2013-06-30 06:21:00,73.9,70.5,29.47,SE,135,0.0,0.0,89,0.00,,,0.00,WUHU216HW,2013-06-30 10:21:00,
2013-06-30 06:22:00,72.6,69.9,29.64,ENE,68,0.0,0.0,92,0.00,,,0.25,WUHU216HW,2013-06-30 10:22:00,
2013-06-30 06:23:00,72.6,69.9,29.64,ENE,68,0.0,0.0,92,0.00,,,0.25,WUHU216HW,2013-06-30 10:23:00,
2013-06-30 06:24:00,72.6,69.9,29.64,ENE,68,0.0,0.0,92,0.00,,,0.25,WUHU216HW,2013-06-30 10:24:00,
2013-06-30 06:25:00,72.6,69.9,29.64,ENE,68,0.0,0.0,92,0.00,,,0.25,WUHU216HW,2013-06-30 10:25:00,
2013-06-30 06:26:00,73.9,70.5,29.47,SE,135,0.0,0.0,89,0.00,,,0.00,WUHU216HW,2013-06-30 10:26:00,
2013-06-30 06:27:00,72.6,69.9,29.63,ENE,68,0.0,0.0,92,0.00,,,0.25,WUHU216HW,2013-06-30 10:27:00,
2013-06-30 06:28:00,72.6,69.9,29.64,ENE,68,0.0,0.0,92,0.00,,,0.25,WUHU216HW,2013-06-30 10:28:00,
2013-06-30 06:29:00,72.6,69.9,29.64,ENE,68,0.0,0.0,92,0.00,,,0.25,WUHU216HW,2013-06-30 10:29:00,
2013-06-30 06:30:00,72.6,69.9,29.64,ENE,68,0.0,0.0,92,0.00,,,0.25,WUHU216HW,2013-06-30 10:30:00,
2013-06-30 06:31:00,73.9,70.5,29.48,SE,135,0.0,0.0,89,0.00,,,0.00,WUHU216HW,2013-06-30 10:31:00,
2013-06-30 06:32:00,72.6,69.9,29.64,ENE,68,0.0,0.0,92,0.00,,,0.25,WUHU216HW,2013-06-30 10:32:00,
2013-06-30 06:33:00,72.6,69.9,29.64,ENE,68,0.0,0.0,92,0.00,,,0.25,WUHU216HW,2013-06-30 10:33:00,
2013-06-30 06:34:00,72.6,69.9,29.64,ENE,68,0.0,0.0,92,0.00,,,0.25,WUHU216HW,2013-06-30 10:34:00,
2013-06-30 06:35:00,72.6,69.9,29.64,ENE,68,0.0,0.0,92,0.00,,,0.25,WUHU216HW,2013-06-30 10:35:00,
2013-06-30 06:36:00,73.9,70.5,29.48,SE,135,0.0,0.0,89,0.00,,,0.00,WUHU216HW,2013-06-30 10:36:00,
2013-06-30 06:37:00,72.6,69.9,29.64,ENE,68,0.0,0.0,92,0.00,,,0.25,WUHU216HW,2013-06-30 10:37:00,
2013-06-30 06:38:00,72.6,69.9,29.64,ENE,68,0.0,0.0,92,0.00,,,0.25,WUHU216HW,2013-06-30 10:38:00,
2013-06-30 06:39:00,72.6,69.9,29.64,ENE,68,0.0,0.0,92,0.00,,,0.25,WUHU216HW,2013-06-30 10:39:00,
2013-06-30 06:40:00,72.6,69.9,29.64,ENE,68,0.0,0.0,92,0.00,,,0.25,WUHU216HW,2013-06-30 10:40:00,
2013-06-30 06:41:00,74.1,71.0,29.48,SE,135,0.0,0.0,90,0.00,,,0.00,WUHU216HW,2013-06-30 10:41:00,
2013-06-30 06:42:00,72.6,69.9,29.64,ENE,68,0.0,0.0,92,0.00,,,0.25,WUHU216HW,2013-06-30 10:42:00,
2013-06-30 06:43:00,72.6,69.9,29.64,ENE,68,0.0,0.0,92,0.00,,,0.25,WUHU216HW,2013-06-30 10:43:00,
2013-06-30 06:44:00,72.6,69.9,29.64,ENE,68,0.0,0.0,92,0.00,,,0.25,WUHU216HW,2013-06-30 10:44:00,
2013-06-30 06:45:00,72.6,69.9,29.64,ENE,68,0.0,0.0,92,0.00,,,0.25,WUHU216HW,2013-06-30 10:45:00,
2013-06-30 06:46:00,74.1,71.0,29.48,SE,135,0.0,0.0,90,0.00,,,0.00,WUHU216HW,2013-06-30 10:46:00,
2013-06-30 06:47:00,72.6,69.9,29.64,ENE,68,0.0,0.0,92,0.00,,,0.25,WUHU216HW,2013-06-30 10:47:00,
2013-06-30 06:48:00,72.6,69.9,29.64,ENE,68,0.0,0.0,92,0.00,,,0.25,WUHU216HW,2013-06-30 10:48:00,
2013-06-30 06:49:00,72.5,70.0,29.64,ENE,68,0.0,0.0,92,0.00,,,0.25,WUHU216HW,2013-06-30 10:49:00,
2013-06-30 06:50:00,72.5,70.0,29.64,ENE,68,0.0,0.0,92,0.00,,,0.25,WUHU216HW,2013-06-30 10:50:00,
2013-06-30 06:51:00,74.1,71.0,29.48,SE,135,0.0,0.0,90,0.00,,,0.00,WUHU216HW,2013-06-30 10:51:00,
2013-06-30 06:52:00,72.5,70.0,29.64,ENE,68,0.0,0.0,92,0.00,,,0.25,WUHU216HW,2013-06-30 10:52:00,
2013-06-30 06:53:00,72.5,70.0,29.64,ENE,68,0.0,0.0,92,0.00,,,0.25,WUHU216HW,2013-06-30 10:53:00,
2013-06-30 06:54:00,72.5,70.0,29.64,ENE,68,0.0,0.0,92,0.00,,,0.25,WUHU216HW,2013-06-30 10:54:00,
2013-06-30 06:55:00,72.5,70.0,29.64,ENE,68,0.0,0.0,92,0.00,,,0.25,WUHU216HW,2013-06-30 10:55:00,
2013-06-30 06:56:00,74.1,71.0,29.48,SE,135,0.0,0.0,90,0.00,,,0.00,WUHU216HW,2013-06-30 10:56:00,
2013-06-30 06:57:00,72.5,70.0,29.64,ENE,68,0.0,0.0,92,0.00,,,0.25,WUHU216HW,2013-06-30 10:57:00,
2013-06-30 06:58:00,72.5,70.0,29.64,ENE,68,0.0,0.0,92,0.00,,,0.25,WUHU216HW,2013-06-30 10:58:00,
2013-06-30 06:59:00,72.5,70.0,29.65,ENE,68,0.0,0.0,92,0.00,,,0.25,WUHU216HW,2013-06-30 10:59:00,
2013-06-30 07:00:00,72.5,70.0,29.65,ENE,68,0.0,0.0,92,0.00,,,0.25,WUHU216HW,2013-06-30 11:00:00,
2013-06-30 07:01:00,74.1,71.0,29.48,SE,135,0.0,0.0,90,0.00,,,0.00,WUHU216HW,2013-06-30 11:01:00,
2013-06-30 07:02:00,72.5,70.0,29.64,ENE,68,0.0,0.0,92,0.00,,,0.25,WUHU216HW,2013-06-30 11:02:00,
2013-06-30 07:03:00,72.5,70.0,29.64,ENE,68,0.0,0.0,92,0.00,,,0.25,WUHU216HW,2013-06-30 11:03:00,
2013-06-30 07:04:00,72.5,70.0,29.64,ENE,68,0.0,0.0,92,0.02,,,0.27,WUHU216HW,2013-06-30 11:04:00,
2013-06-30 07:05:00,72.5,70.0,29.64,ENE,68,0.0,0.0,92,0.02,,,0.27,WUHU216HW,2013-06-30 11:05:00,
2013-06-30 07:06:00,74.1,71.0,29.48,SE,135,0.0,0.0,90,0.00,,,0.00,WUHU216HW,2013-06-30 11:06:00,
2013-06-30 07:07:00,72.5,70.0,29.64,ENE,68,0.0,0.0,92,0.02,,,0.27,WUHU216HW,2013-06-30 11:07:00,
2013-06-30 07:08:00,72.5,70.0,29.64,ENE,68,0.0,0.0,92,0.02,,,0.27,WUHU216HW,2013-06-30 11:08:00,
2013-06-30 07:09:00,72.5,70.0,29.64,ENE,68,0.0,0.0,92,0.02,,,0.27,WUHU216HW,2013-06-30 11:09:00,
2013-06-30 07:10:00,72.5,70.0,29.64,ENE,68,0.0,0.0,92,0.02,,,0.27,WUHU216HW,2013-06-30 11:10:00,
2013-06-30 07:11:00,74.1,71.0,29.49,SE,135,0.0,0.0,90,0.00,,,0.00,WUHU216HW,2013-06-30 11:11:00,
2013-06-30 07:12:00,72.5,70.0,29.64,ENE,68,0.0,0.0,92,0.02,,,0.27,WUHU216HW,2013-06-30 11:12:00,
2013-06-30 07:13:00,72.5,70.0,29.64,ENE,68,0.0,0.0,92,0.02,,,0.27,WUHU216HW,2013-06-30 11:13:00,
2013-06-30 07:14:00,72.5,70.0,29.64,ENE,68,0.0,0.0,92,0.02,,,0.27,WUHU216HW,2013-06-30 11:14:00,
2013-06-30 07:15:00,72.5,70.0,29.64,ENE,68,0.0,0.0,92,0.02,,,0.27,WUHU216HW,2013-06-30 11:15:00,
2013-06-30 07:16:00,74.1,71.0,29.49,SE,135,0.0,0.0,90,0.00,,,0.00,WUHU216HW,2013-06-30 11:16:00,
2013-06-30 07:17:00,72.5,70.0,29.64,ENE,68,0.0,0.0,92,0.02,,,0.27,WUHU216HW,2013-06-30 11:17:00,
2013-06-30 07:18:00,72.5,70.0,29.64,ENE,68,0.0,0.0,92,0.02,,,0.27,WUHU216HW,2013-06-30 11:18:00,
2013-06-30 07:19:00,72.5,70.0,29.64,ENE,68,0.0,0.0,92,0.02,,,0.27,WUHU216HW,2013-06-30 11:19:00,
2013-06-30 07:20:00,72.5,70.0,29.64,ENE,68,0.0,0.0,92,0.02,,,0.27,WUHU216HW,2013-06-30 11:20:00,
2013-06-30 07:21:00,74.1,71.0,29.50,SE,135,0.0,0.0,90,0.00,,,0.00,WUHU216HW,2013-06-30 11:21:00,
2013-06-30 07:22:00,72.5,70.0,29.64,ENE,68,0.0,0.0,92,0.02,,,0.27,WUHU216HW,2013-06-30 11:22:00,
2013-06-30 07:23:00,72.5,70.0,29.64,ENE,68,0.0,0.0,92,0.02,,,0.27,WUHU216HW,2013-06-30 11:23:00,
2013-06-30 07:24:00,72.5,70.0,29.64,ENE,68,0.0,0.0,92,0.02,,,0.27,WUHU216HW,2013-06-30 11:24:00,
2013-06-30 07:25:00,72.5,70.0,29.64,ENE,68,0.0,0.0,92,0.02,,,0.27,WUHU216HW,2013-06-30 11:25:00,
2013-06-30 07:26:00,74.3,71.2,29.50,SE,135,0.0,0.0,90,0.00,,,0.00,WUHU216HW,2013-06-30 11:26:00,
2013-06-30 07:27:00,72.5,70.0,29.64,ENE,68,0.0,0.0,92,0.02,,,0.27,WUHU216HW,2013-06-30 11:27:00,
2013-06-30 07:28:00,72.5,70.0,29.63,ENE,68,0.0,0.0,92,0.02,,,0.27,WUHU216HW,2013-06-30 11:28:00,
2013-06-30 07:29:00,72.5,70.0,29.63,ENE,68,0.0,0.0,92,0.02,,,0.27,WUHU216HW,2013-06-30 11:29:00,
2013-06-30 07:30:00,72.5,70.0,29.63,ENE,68,0.0,0.0,92,0.02,,,0.27,WUHU216HW,2013-06-30 11:30:00,
2013-06-30 07:31:00,74.3,71.2,29.50,SE,135,0.0,0.0,90,0.00,,,0.00,WUHU216HW,2013-06-30 11:31:00,
2013-06-30 07:32:00,72.5,70.0,29.63,ENE,68,0.0,0.0,92,0.02,,,0.27,WUHU216HW,2013-06-30 11:32:00,
2013-06-30 07:33:00,72.5,70.0,29.63,ENE,68,0.0,0.0,92,0.02,,,0.27,WUHU216HW,2013-06-30 11:33:00,
2013-06-30 07:34:00,72.5,70.0,29.63,ENE,68,0.0,0.0,92,0.02,,,0.27,WUHU216HW,2013-06-30 11:34:00,
2013-06-30 07:35:00,72.5,70.0,29.63,ENE,68,0.0,0.0,92,0.02,,,0.27,WUHU216HW,2013-06-30 11:35:00,
2013-06-30 07:36:00,74.3,71.2,29.50,SE,135,0.0,0.0,90,0.00,,,0.00,WUHU216HW,2013-06-30 11:36:00,
2013-06-30 07:37:00,72.5,70.0,29.63,ENE,68,0.0,0.0,92,0.02,,,0.27,WUHU216HW,2013-06-30 11:37:00,
2013-06-30 07:38:00,72.5,70.0,29.63,ENE,68,0.0,0.0,92,0.02,,,0.27,WUHU216HW,2013-06-30 11:38:00,
2013-06-30 07:39:00,72.3,69.8,29.63,ENE,68,0.0,0.0,92,0.02,,,0.27,WUHU216HW,2013-06-30 11:39:00,
2013-06-30 07:40:00,72.3,69.8,29.63,ENE,68,0.0,0.0,92,0.02,,,0.27,WUHU216HW,2013-06-30 11:40:00,
2013-06-30 07:41:00,74.3,71.2,29.50,SE,135,0.0,0.0,90,0.00,,,0.00,WUHU216HW,2013-06-30 11:41:00,
2013-06-30 07:42:00,72.3,69.8,29.63,ENE,68,0.0,0.0,92,0.02,,,0.27,WUHU216HW,2013-06-30 11:42:00,
2013-06-30 07:43:00,72.3,69.8,29.62,ENE,68,0.0,0.0,92,0.02,,,0.27,WUHU216HW,2013-06-30 11:43:00,
2013-06-30 07:44:00,72.3,69.8,29.63,ENE,68,0.0,0.0,92,0.02,,,0.27,WUHU216HW,2013-06-30 11:44:00,
2013-06-30 07:45:00,72.3,69.8,29.62,ENE,68,0.0,0.0,92,0.02,,,0.27,WUHU216HW,2013-06-30 11:45:00,
2013-06-30 07:46:00,74.4,71.4,29.50,East,90,0.0,0.0,90,0.00,,,0.00,WUHU216HW,2013-06-30 11:46:00,
2013-06-30 07:47:00,72.3,69.8,29.62,ENE,68,0.0,0.0,92,0.02,,,0.27,WUHU216HW,2013-06-30 11:47:00,
2013-06-30 07:48:00,72.3,69.8,29.62,ENE,68,0.0,0.0,92,0.02,,,0.27,WUHU216HW,2013-06-30 11:48:00,
2013-06-30 07:49:00,72.3,69.8,29.62,ENE,68,0.0,0.0,92,0.02,,,0.27,WUHU216HW,2013-06-30 11:49:00,
2013-06-30 07:50:00,72.3,69.8,29.62,ENE,68,0.0,0.0,92,0.02,,,0.27,WUHU216HW,2013-06-30 11:50:00,
2013-06-30 07:51:00,74.8,71.4,29.50,SE,135,0.0,0.0,89,0.00,,,0.00,WUHU216HW,2013-06-30 11:51:00,
2013-06-30 07:52:00,72.3,69.8,29.61,ENE,68,0.0,0.0,92,0.02,,,0.27,WUHU216HW,2013-06-30 11:52:00,
2013-06-30 07:53:00,72.3,69.8,29.61,ENE,68,0.0,0.0,92,0.02,,,0.27,WUHU216HW,2013-06-30 11:53:00,
2013-06-30 07:54:00,72.3,69.8,29.61,ENE,68,0.0,0.0,92,0.02,,,0.27,WUHU216HW,2013-06-30 11:54:00,
2013-06-30 07:55:00,72.3,69.8,29.61,ENE,68,0.0,0.0,92,0.02,,,0.27,WUHU216HW,2013-06-30 11:55:00,
2013-06-30 07:56:00,75.0,71.6,29.50,SE,135,0.0,0.0,89,0.00,,,0.00,WUHU216HW,2013-06-30 11:56:00,
2013-06-30 07:57:00,72.3,69.8,29.61,ENE,68,0.0,0.0,92,0.02,,,0.27,WUHU216HW,2013-06-30 11:57:00,
2013-06-30 07:58:00,72.1,69.6,29.62,ENE,68,0.0,0.0,92,0.02,,,0.27,WUHU216HW,2013-06-30 11:58:00,
2013-06-30 07:59:00,72.1,69.6,29.62,ENE,68,0.0,0.0,92,0.02,,,0.27,WUHU216HW,2013-06-30 11:59:00,
2013-06-30 08:00:00,72.3,69.8,29.62,ENE,68,0.0,0.0,92,0.02,,,0.27,WUHU216HW,2013-06-30 12:00:00,
2013-06-30 08:01:00,75.0,71.6,29.50,SE,135,0.0,0.0,89,0.00,,,0.00,WUHU216HW,2013-06-30 12:01:00,
2013-06-30 08:02:00,72.3,69.8,29.62,ENE,68,0.0,0.0,92,0.02,,,0.27,WUHU216HW,2013-06-30 12:02:00,
2013-06-30 08:03:00,72.1,69.6,29.62,ENE,68,0.0,0.0,92,0.02,,,0.27,WUHU216HW,2013-06-30 12:03:00,
2013-06-30 08:04:00,72.1,69.6,29.62,ENE,68,0.0,0.0,92,0.02,,,0.27,WUHU216HW,2013-06-30 12:04:00,
2013-06-30 08:05:00,72.1,69.6,29.62,ENE,68,0.0,0.0,92,0.02,,,0.27,WUHU216HW,2013-06-30 12:05:00,
2013-06-30 08:06:00,75.3,71.9,29.51,SE,135,0.0,0.0,89,0.00,,,0.00,WUHU216HW,2013-06-30 12:06:00,
2013-06-30 08:07:00,72.1,69.6,29.63,ENE,68,0.0,0.0,92,0.02,,,0.27,WUHU216HW,2013-06-30 12:07:00,
2013-06-30 08:08:00,72.1,69.6,29.63,ENE,68,0.0,0.0,92,0.02,,,0.27,WUHU216HW,2013-06-30 12:08:00,
2013-06-30 08:09:00,72.1,69.6,29.63,ENE,68,0.0,0.0,92,0.02,,,0.27,WUHU216HW,2013-06-30 12:09:00,
2013-06-30 08:10:00,72.1,69.6,29.63,ENE,68,0.0,0.0,92,0.02,,,0.27,WUHU216HW,2013-06-30 12:10:00,
2013-06-30 08:11:00,75.5,72.1,29.50,SE,135,0.0,0.0,89,0.00,,,0.00,WUHU216HW,2013-06-30 12:11:00,
2013-06-30 08:12:00,72.1,69.6,29.63,ENE,68,0.0,0.0,92,0.02,,,0.27,WUHU216HW,2013-06-30 12:12:00,
2013-06-30 08:13:00,72.1,69.6,29.62,ENE,68,0.0,0.0,92,0.02,,,0.27,WUHU216HW,2013-06-30 12:13:00,
2013-06-30 08:14:00,72.1,69.6,29.62,ENE,68,0.0,0.0,92,0.02,,,0.27,WUHU216HW,2013-06-30 12:14:00,
2013-06-30 08:16:00,75.7,72.3,29.51,SE,135,0.0,0.0,89,0.00,,,0.00,WUHU216HW,2013-06-30 12:16:00,
2013-06-30 08:17:00,72.1,69.6,29.62,ENE,68,0.0,0.0,92,0.00,,,0.27,WUHU216HW,2013-06-30 12:17:00,
2013-06-30 08:18:00,71.9,69.5,29.62,SE,135,0.0,0.0,92,0.00,,,0.27,WUHU216HW,2013-06-30 12:18:00,
2013-06-30 08:19:00,71.9,69.5,29.62,SE,135,0.0,0.0,92,0.00,,,0.27,WUHU216HW,2013-06-30 12:19:00,
2013-06-30 08:20:00,71.9,69.5,29.62,SE,135,0.0,0.0,92,0.00,,,0.27,WUHU216HW,2013-06-30 12:20:00,
2013-06-30 08:21:00,75.9,72.1,29.51,SE,135,0.0,0.0,88,0.00,,,0.00,WUHU216HW,2013-06-30 12:21:00,
2013-06-30 08:22:00,71.9,69.5,29.62,NNW,338,0.0,0.0,92,0.00,,,0.27,WUHU216HW,2013-06-30 12:22:00,
2013-06-30 08:23:00,71.9,69.5,29.62,NNW,338,0.0,0.0,92,0.00,,,0.27,WUHU216HW,2013-06-30 12:23:00,
2013-06-30 08:24:00,71.9,69.5,29.62,NNW,338,0.0,0.0,92,0.00,,,0.27,WUHU216HW,2013-06-30 12:24:00,
2013-06-30 08:25:00,71.9,69.5,29.63,NNW,338,0.0,0.0,92,0.00,,,0.27,WUHU216HW,2013-06-30 12:25:00,
2013-06-30 08:26:00,76.1,72.3,29.51,SE,135,0.0,0.0,88,0.00,,,0.00,WUHU216HW,2013-06-30 12:26:00,
2013-06-30 08:27:00,71.9,69.5,29.62,NNW,338,0.0,0.0,92,0.00,,,0.27,WUHU216HW,2013-06-30 12:27:00,
2013-06-30 08:28:00,71.9,69.5,29.63,NNW,338,0.0,0.0,92,0.00,,,0.27,WUHU216HW,2013-06-30 12:28:00,
2013-06-30 08:29:00,71.9,69.5,29.63,North,0,0.0,0.0,92,0.00,,,0.27,WUHU216HW,2013-06-30 12:29:00,
2013-06-30 08:30:00,71.9,69.5,29.63,North,0,0.0,0.0,92,0.00,,,0.27,WUHU216HW,2013-06-30 12:30:00,
2013-06-30 08:31:00,76.1,72.3,29.51,SE,135,0.0,0.0,88,0.00,,,0.00,WUHU216HW,2013-06-30 12:31:00,
2013-06-30 08:32:00,71.9,69.5,29.63,NNW,338,0.0,0.0,92,0.00,,,0.27,WUHU216HW,2013-06-30 12:32:00,
2013-06-30 08:33:00,71.9,69.5,29.63,NNW,338,0.0,0.0,92,0.00,,,0.27,WUHU216HW,2013-06-30 12:33:00,
2013-06-30 08:34:00,71.9,69.5,29.63,NNW,338,0.0,0.0,92,0.00,,,0.27,WUHU216HW,2013-06-30 12:34:00,
2013-06-30 08:35:00,71.9,69.5,29.63,NNW,338,0.0,0.0,92,0.00,,,0.27,WUHU216HW,2013-06-30 12:35:00,
2013-06-30 08:36:00,75.9,72.1,29.51,SE,135,0.0,0.0,88,0.00,,,0.00,WUHU216HW,2013-06-30 12:36:00,
2013-06-30 08:37:00,71.9,69.5,29.63,NNW,338,0.0,0.0,92,0.00,,,0.27,WUHU216HW,2013-06-30 12:37:00,
2013-06-30 08:38:00,71.9,69.5,29.63,NNW,338,0.0,0.0,92,0.00,,,0.27,WUHU216HW,2013-06-30 12:38:00,
2013-06-30 08:41:00,76.1,72.3,29.51,SE,135,0.0,0.0,88,0.00,,,0.00,WUHU216HW,2013-06-30 12:41:00,
2013-06-30 08:46:00,76.2,72.5,29.51,SE,135,0.0,0.0,88,0.00,,,0.00,WUHU216HW,2013-06-30 12:46:00,
2013-06-30 08:51:00,76.8,72.6,29.51,SE,135,0.0,0.0,87,0.00,,,0.00,WUHU216HW,2013-06-30 12:51:00,
2013-06-30 08:52:00,72.1,69.6,29.64,NNW,338,0.0,0.0,92,0.00,,,0.27,WUHU216HW,2013-06-30 12:52:00,
2013-06-30 08:53:00,72.1,69.6,29.64,NNW,338,0.0,0.0,92,0.00,,,0.27,WUHU216HW,2013-06-30 12:53:00,
2013-06-30 08:54:00,72.1,69.6,29.64,NNW,338,0.0,0.0,92,0.00,,,0.27,WUHU216HW,2013-06-30 12:54:00,
2013-06-30 08:55:00,72.1,69.6,29.64,NNW,338,0.0,0.0,92,0.00,,,0.27,WUHU216HW,2013-06-30 12:55:00,
2013-06-30 08:56:00,77.0,72.8,29.51,SE,135,0.0,0.0,87,0.00,,,0.00,WUHU216HW,2013-06-30 12:56:00,
2013-06-30 09:00:00,72.1,69.6,29.64,NNW,338,0.0,0.0,92,0.00,,,0.27,WUHU216HW,2013-06-30 13:00:00,
2013-06-30 09:01:00,77.1,73.0,29.51,SE,135,0.0,0.0,87,0.00,,,0.00,WUHU216HW,2013-06-30 13:01:00,
2013-06-30 09:02:00,72.1,69.6,29.64,NNW,338,0.0,0.0,92,0.00,,,0.27,WUHU216HW,2013-06-30 13:02:00,
2013-06-30 09:04:00,72.1,69.6,29.64,NNW,338,0.0,0.0,92,0.02,,,0.29,WUHU216HW,2013-06-30 13:04:00,
2013-06-30 09:05:00,72.1,69.6,29.64,NNW,338,0.0,0.0,92,0.02,,,0.29,WUHU216HW,2013-06-30 13:05:00,
2013-06-30 09:06:00,77.1,73.0,29.51,SE,135,0.0,0.0,86,0.00,,,0.00,WUHU216HW,2013-06-30 13:06:00,
2013-06-30 09:07:00,72.1,69.6,29.64,NNW,338,0.0,0.0,92,0.02,,,0.29,WUHU216HW,2013-06-30 13:07:00,
2013-06-30 09:09:00,72.1,69.6,29.64,NNW,338,0.0,0.0,92,0.02,,,0.29,WUHU216HW,2013-06-30 13:09:00,
2013-06-30 09:10:00,72.1,69.6,29.64,NNW,338,0.0,0.0,92,0.02,,,0.29,WUHU216HW,2013-06-30 13:10:00,
2013-06-30 09:11:00,77.3,72.8,29.51,SE,135,0.0,0.0,86,0.00,,,0.00,WUHU216HW,2013-06-30 13:11:00,
2013-06-30 09:14:00,72.1,69.6,29.64,NNW,338,0.0,0.0,92,0.02,,,0.29,WUHU216HW,2013-06-30 13:14:00,
2013-06-30 09:15:00,72.1,69.6,29.64,NNW,338,0.0,0.0,92,0.02,,,0.29,WUHU216HW,2013-06-30 13:15:00,
2013-06-30 09:16:00,77.7,73.5,29.51,SE,135,0.0,0.0,87,0.00,,,0.00,WUHU216HW,2013-06-30 13:16:00,
2013-06-30 09:17:00,72.1,69.6,29.64,NNW,338,0.0,0.0,92,0.02,,,0.29,WUHU216HW,2013-06-30 13:17:00,
2013-06-30 09:18:00,72.1,69.6,29.64,NNW,338,0.0,0.0,92,0.02,,,0.29,WUHU216HW,2013-06-30 13:18:00,
2013-06-30 09:21:00,77.7,73.5,29.51,SE,135,0.0,0.0,85,0.00,,,0.00,WUHU216HW,2013-06-30 13:21:00,
2013-06-30 09:26:00,77.7,73.2,29.51,SE,135,0.0,0.0,86,0.00,,,0.00,WUHU216HW,2013-06-30 13:26:00,
2013-06-30 09:27:00,72.1,69.6,29.63,North,0,0.0,0.0,92,0.04,,,0.31,WUHU216HW,2013-06-30 13:27:00,
2013-06-30 09:28:00,72.1,69.6,29.63,North,0,0.0,0.0,92,0.04,,,0.31,WUHU216HW,2013-06-30 13:28:00,
2013-06-30 09:29:00,72.1,69.6,29.63,North,0,0.0,0.0,92,0.08,,,0.35,WUHU216HW,2013-06-30 13:29:00,
2013-06-30 09:30:00,72.1,69.6,29.63,North,0,0.0,0.0,92,0.08,,,0.35,WUHU216HW,2013-06-30 13:30:00,
2013-06-30 09:31:00,77.9,73.0,29.51,SE,135,0.0,0.0,85,0.00,,,0.00,WUHU216HW,2013-06-30 13:31:00,
2013-06-30 09:32:00,72.1,69.6,29.63,North,0,0.0,0.0,92,0.08,,,0.35,WUHU216HW,2013-06-30 13:32:00,
2013-06-30 09:33:00,72.1,69.6,29.63,North,0,0.0,0.0,92,0.10,,,0.37,WUHU216HW,2013-06-30 13:33:00,
2013-06-30 09:34:00,72.1,69.6,29.62,North,0,0.0,0.0,92,0.10,,,0.37,WUHU216HW,2013-06-30 13:34:00,
2013-06-30 09:35:00,72.1,69.6,29.62,North,0,0.0,0.0,92,0.10,,,0.37,WUHU216HW,2013-06-30 13:35:00,
2013-06-30 09:36:00,78.4,73.5,29.51,SE,135,0.0,0.0,85,0.00,,,0.00,WUHU216HW,2013-06-30 13:36:00,
2013-06-30 09:37:00,72.1,69.6,29.62,North,0,0.0,0.0,93,0.12,,,0.39,WUHU216HW,2013-06-30 13:37:00,
2013-06-30 09:38:00,72.1,69.6,29.62,North,0,0.0,0.0,93,0.12,,,0.39,WUHU216HW,2013-06-30 13:38:00,
2013-06-30 09:39:00,72.1,69.6,29.62,North,0,0.0,0.0,93,0.12,,,0.39,WUHU216HW,2013-06-30 13:39:00,
2013-06-30 09:40:00,72.1,69.6,29.61,North,0,0.0,0.0,93,0.12,,,0.39,WUHU216HW,2013-06-30 13:40:00,
2013-06-30 09:41:00,78.6,73.4,29.50,SE,135,0.0,0.0,84,0.00,,,0.00,WUHU216HW,2013-06-30 13:41:00,
2013-06-30 09:42:00,71.9,69.8,29.61,North,0,0.0,0.0,93,0.12,,,0.39,WUHU216HW,2013-06-30 13:42:00,
2013-06-30 09:43:00,71.9,69.8,29.61,North,0,0.0,0.0,93,0.12,,,0.39,WUHU216HW,2013-06-30 13:43:00,
2013-06-30 09:44:00,71.9,69.8,29.61,North,0,0.0,0.0,93,0.12,,,0.39,WUHU216HW,2013-06-30 13:44:00,
2013-06-30 09:45:00,71.9,69.8,29.61,North,0,0.0,0.0,93,0.12,,,0.39,WUHU216HW,2013-06-30 13:45:00,
2013-06-30 09:46:00,78.6,73.4,29.50,SE,135,0.0,0.0,84,0.00,,,0.00,WUHU216HW,2013-06-30 13:46:00,
2013-06-30 09:47:00,71.9,69.8,29.61,North,0,0.0,0.0,93,0.14,,,0.41,WUHU216HW,2013-06-30 13:47:00,
2013-06-30 09:48:00,71.9,69.8,29.61,North,0,0.0,0.0,93,0.14,,,0.41,WUHU216HW,2013-06-30 13:48:00,
2013-06-30 09:49:00,71.9,69.8,29.61,North,0,0.0,0.0,93,0.14,,,0.41,WUHU216HW,2013-06-30 13:49:00,
2013-06-30 09:50:00,71.9,69.8,29.61,North,0,0.0,0.0,93,0.14,,,0.41,WUHU216HW,2013-06-30 13:50:00,
2013-06-30 09:51:00,78.6,73.4,29.50,SE,135,0.0,0.0,83,0.00,,,0.00,WUHU216HW,2013-06-30 13:51:00,
2013-06-30 09:55:00,71.9,69.8,29.61,North,0,0.0,0.0,93,0.14,,,0.41,WUHU216HW,2013-06-30 13:55:00,
2013-06-30 09:56:00,78.6,73.4,29.50,SE,135,0.0,0.0,84,0.00,,,0.00,WUHU216HW,2013-06-30 13:56:00,
2013-06-30 10:01:00,78.6,73.4,29.50,ESE,113,0.0,0.0,84,0.00,,,0.00,WUHU216HW,2013-06-30 14:01:00,
2013-06-30 10:02:00,71.9,69.8,29.61,North,0,0.0,0.0,93,0.14,,,0.41,WUHU216HW,2013-06-30 14:02:00,
2013-06-30 10:03:00,71.9,69.8,29.61,North,0,0.0,0.0,93,0.14,,,0.41,WUHU216HW,2013-06-30 14:03:00,
2013-06-30 10:04:00,71.9,69.8,29.61,North,0,0.0,0.0,93,0.14,,,0.41,WUHU216HW,2013-06-30 14:04:00,
2013-06-30 10:06:00,78.9,73.7,29.50,ESE,113,0.0,0.0,84,0.00,,,0.00,WUHU216HW,2013-06-30 14:06:00,
2013-06-30 10:07:00,71.9,69.8,29.61,North,0,0.0,0.0,93,0.14,,,0.41,WUHU216HW,2013-06-30 14:07:00,
2013-06-30 10:08:00,71.7,69.6,29.61,North,0,0.0,0.0,93,0.14,,,0.41,WUHU216HW,2013-06-30 14:08:00,
2013-06-30 10:09:00,71.7,69.6,29.61,North,0,0.0,0.0,93,0.14,,,0.41,WUHU216HW,2013-06-30 14:09:00,
2013-06-30 10:10:00,71.7,69.6,29.62,North,0,0.0,0.0,93,0.14,,,0.41,WUHU216HW,2013-06-30 14:10:00,
2013-06-30 10:11:00,78.9,73.7,29.51,SE,135,0.0,0.0,84,0.00,,,0.00,WUHU216HW,2013-06-30 14:11:00,
2013-06-30 10:14:00,71.7,69.6,29.62,North,0,0.0,0.0,93,0.14,,,0.41,WUHU216HW,2013-06-30 14:14:00,
2013-06-30 10:16:00,78.6,73.0,29.51,SE,135,0.0,0.0,83,0.00,,,0.00,WUHU216HW,2013-06-30 14:16:00,
2013-06-30 10:17:00,71.9,69.8,29.62,North,0,0.0,0.0,93,0.14,,,0.41,WUHU216HW,2013-06-30 14:17:00,
2013-06-30 10:18:00,71.9,69.8,29.62,North,0,0.0,0.0,93,0.14,,,0.41,WUHU216HW,2013-06-30 14:18:00,
2013-06-30 10:19:00,71.9,69.8,29.62,North,0,0.0,0.0,93,0.14,,,0.41,WUHU216HW,2013-06-30 14:19:00,
2013-06-30 10:20:00,71.9,69.8,29.62,North,0,0.0,0.0,93,0.14,,,0.41,WUHU216HW,2013-06-30 14:20:00,
2013-06-30 10:21:00,78.9,73.7,29.50,ESE,113,0.0,0.0,84,0.00,,,0.00,WUHU216HW,2013-06-30 14:21:00,
2013-06-30 10:23:00,71.9,69.8,29.62,North,0,0.0,0.0,93,0.14,,,0.41,WUHU216HW,2013-06-30 14:23:00,
2013-06-30 10:25:00,71.9,69.8,29.62,North,0,0.0,0.0,93,0.14,,,0.41,WUHU216HW,2013-06-30 14:25:00,
2013-06-30 10:26:00,79.3,73.7,29.50,ESE,113,0.0,0.0,82,0.00,,,0.00,WUHU216HW,2013-06-30 14:26:00,
2013-06-30 10:29:00,71.7,69.6,29.61,North,0,0.0,0.0,93,0.12,,,0.41,WUHU216HW,2013-06-30 14:29:00,
2013-06-30 10:30:00,71.7,69.6,29.61,North,0,0.0,0.0,93,0.12,,,0.41,WUHU216HW,2013-06-30 14:30:00,
2013-06-30 10:31:00,79.8,74.2,29.50,SE,135,0.0,0.0,83,0.00,,,0.00,WUHU216HW,2013-06-30 14:31:00,
2013-06-30 10:32:00,71.7,69.6,29.60,North,0,0.0,0.0,93,0.12,,,0.41,WUHU216HW,2013-06-30 14:32:00,
2013-06-30 10:33:00,71.7,69.6,29.60,North,0,0.0,0.0,93,0.12,,,0.41,WUHU216HW,2013-06-30 14:33:00,
2013-06-30 10:34:00,71.6,69.4,29.60,East,90,0.0,0.0,93,0.12,,,0.41,WUHU216HW,2013-06-30 14:34:00,
2013-06-30 10:35:00,71.6,69.4,29.60,East,90,0.0,0.0,93,0.12,,,0.41,WUHU216HW,2013-06-30 14:35:00,
2013-06-30 10:36:00,80.7,75.1,29.50,SE,135,0.0,0.0,83,0.00,,,0.00,WUHU216HW,2013-06-30 14:36:00,
2013-06-30 10:37:00,71.6,69.4,29.60,East,90,0.0,0.0,93,0.12,,,0.41,WUHU216HW,2013-06-30 14:37:00,
2013-06-30 10:38:00,71.4,69.2,29.60,ESE,113,0.0,0.0,93,0.12,,,0.41,WUHU216HW,2013-06-30 14:38:00,
2013-06-30 10:39:00,71.4,69.2,29.59,ESE,113,0.0,0.0,93,0.12,,,0.41,WUHU216HW,2013-06-30 14:39:00,
2013-06-30 10:40:00,71.4,69.2,29.60,ESE,113,0.0,0.0,93,0.12,,,0.41,WUHU216HW,2013-06-30 14:40:00,
2013-06-30 10:41:00,81.5,75.5,29.51,ESE,113,0.0,0.0,82,0.00,,,0.00,WUHU216HW,2013-06-30 14:41:00,
2013-06-30 10:42:00,71.4,69.2,29.60,ESE,113,0.0,0.0,93,0.12,,,0.41,WUHU216HW,2013-06-30 14:42:00,
2013-06-30 10:43:00,71.4,69.2,29.60,ESE,113,0.0,0.0,93,0.12,,,0.41,WUHU216HW,2013-06-30 14:43:00,
2013-06-30 10:44:00,71.4,69.2,29.60,ESE,113,0.0,0.0,93,0.12,,,0.41,WUHU216HW,2013-06-30 14:44:00,
2013-06-30 10:45:00,71.4,69.2,29.60,ESE,113,0.0,0.0,93,0.12,,,0.41,WUHU216HW,2013-06-30 14:45:00,
2013-06-30 10:46:00,81.5,75.5,29.51,ESE,113,0.0,0.0,81,0.00,,,0.00,WUHU216HW,2013-06-30 14:46:00,
2013-06-30 10:47:00,71.4,69.2,29.59,ESE,113,0.0,0.0,93,0.12,,,0.41,WUHU216HW,2013-06-30 14:47:00,
2013-06-30 10:48:00,71.4,69.2,29.59,ESE,113,0.0,0.0,93,0.12,,,0.41,WUHU216HW,2013-06-30 14:48:00,
2013-06-30 10:49:00,71.4,69.2,29.60,ESE,113,0.0,0.0,93,0.12,,,0.41,WUHU216HW,2013-06-30 14:49:00,
2013-06-30 10:50:00,71.4,69.2,29.59,ESE,113,0.0,0.0,93,0.12,,,0.41,WUHU216HW,2013-06-30 14:50:00,
2013-06-30 10:51:00,82.2,75.5,29.51,ESE,113,0.0,0.0,80,0.00,,,0.00,WUHU216HW,2013-06-30 14:51:00,
2013-06-30 10:52:00,71.4,69.2,29.60,ESE,113,0.0,0.0,93,0.12,,,0.41,WUHU216HW,2013-06-30 14:52:00,
2013-06-30 10:53:00,71.4,69.2,29.60,ESE,113,0.0,0.0,93,0.12,,,0.41,WUHU216HW,2013-06-30 14:53:00,
2013-06-30 10:54:00,71.4,69.2,29.60,ESE,113,0.0,0.0,93,0.12,,,0.41,WUHU216HW,2013-06-30 14:54:00,
2013-06-30 10:55:00,71.4,69.2,29.60,ESE,113,0.0,0.0,93,0.12,,,0.41,WUHU216HW,2013-06-30 14:55:00,
2013-06-30 10:56:00,82.0,75.3,29.51,ESE,113,0.0,0.0,80,0.00,,,0.00,WUHU216HW,2013-06-30 14:56:00,
2013-06-30 10:57:00,71.4,69.2,29.60,ESE,113,0.0,0.0,93,0.12,,,0.41,WUHU216HW,2013-06-30 14:57:00,
2013-06-30 10:58:00,71.4,69.2,29.60,ESE,113,0.0,0.0,93,0.12,,,0.41,WUHU216HW,2013-06-30 14:58:00,
2013-06-30 10:59:00,71.4,69.2,29.60,ESE,113,0.0,0.0,93,0.12,,,0.41,WUHU216HW,2013-06-30 14:59:00,
2013-06-30 11:00:00,71.4,69.2,29.60,ESE,113,0.0,0.0,93,0.12,,,0.41,WUHU216HW,2013-06-30 15:00:00,
2013-06-30 11:01:00,81.6,75.0,29.51,ESE,113,0.0,0.0,80,0.00,,,0.00,WUHU216HW,2013-06-30 15:01:00,
2013-06-30 11:03:00,71.4,69.2,29.60,ESE,113,0.0,0.0,93,0.12,,,0.41,WUHU216HW,2013-06-30 15:03:00,
2013-06-30 11:04:00,71.4,69.2,29.60,ESE,113,0.0,0.0,93,0.12,,,0.41,WUHU216HW,2013-06-30 15:04:00,
2013-06-30 11:06:00,81.3,74.6,29.51,ESE,113,0.0,0.0,81,0.00,,,0.00,WUHU216HW,2013-06-30 15:06:00,
2013-06-30 11:07:00,71.4,69.2,29.60,ESE,113,0.0,0.0,93,0.12,,,0.41,WUHU216HW,2013-06-30 15:07:00,
2013-06-30 11:08:00,71.4,69.2,29.60,ESE,113,0.0,0.0,93,0.12,,,0.41,WUHU216HW,2013-06-30 15:08:00,
2013-06-30 11:10:00,71.4,69.2,29.61,ESE,113,0.0,0.0,93,0.12,,,0.41,WUHU216HW,2013-06-30 15:10:00,
2013-06-30 11:11:00,81.3,74.6,29.51,ESE,113,0.0,0.0,80,0.00,,,0.00,WUHU216HW,2013-06-30 15:11:00,
2013-06-30 11:17:00,81.1,74.8,29.51,ESE,113,0.0,0.0,81,0.00,,,0.00,WUHU216HW,2013-06-30 15:17:00,
2013-06-30 11:22:00,81.6,75.7,29.51,ESE,113,0.0,0.0,82,0.00,,,0.00,WUHU216HW,2013-06-30 15:22:00,
2013-06-30 11:26:00,71.2,69.1,29.59,SE,135,0.0,0.0,93,0.00,,,0.41,WUHU216HW,2013-06-30 15:26:00,
2013-06-30 11:27:00,82.2,75.5,29.51,ESE,113,0.0,0.0,80,0.00,,,0.00,WUHU216HW,2013-06-30 15:27:00,
2013-06-30 11:29:00,71.2,69.1,29.59,SE,135,0.0,0.0,93,0.00,,,0.41,WUHU216HW,2013-06-30 15:29:00,
2013-06-30 11:30:00,71.2,69.1,29.59,SE,135,0.0,0.0,93,0.00,,,0.41,WUHU216HW,2013-06-30 15:30:00,
2013-06-30 11:31:00,71.2,69.1,29.60,SE,135,0.0,0.0,93,0.00,,,0.41,WUHU216HW,2013-06-30 15:31:00,
2013-06-30 11:32:00,83.4,76.3,29.51,East,90,0.0,0.0,79,0.00,,,0.00,WUHU216HW,2013-06-30 15:32:00,
2013-06-30 11:33:00,71.2,69.1,29.60,SE,135,0.0,0.0,93,0.00,,,0.41,WUHU216HW,2013-06-30 15:33:00,
2013-06-30 11:34:00,71.2,69.1,29.60,SE,135,0.0,0.0,93,0.00,,,0.41,WUHU216HW,2013-06-30 15:34:00,
2013-06-30 11:35:00,71.2,69.1,29.60,SE,135,0.0,0.0,93,0.00,,,0.41,WUHU216HW,2013-06-30 15:35:00,
2013-06-30 11:36:00,71.4,69.2,29.60,SE,135,0.0,0.0,93,0.00,,,0.41,WUHU216HW,2013-06-30 15:36:00,
2013-06-30 11:37:00,83.1,75.5,29.51,ESE,113,0.0,0.0,78,0.00,,,0.00,WUHU216HW,2013-06-30 15:37:00,
2013-06-30 11:38:00,71.2,69.1,29.60,SE,135,0.0,0.0,93,0.00,,,0.41,WUHU216HW,2013-06-30 15:38:00,
2013-06-30 11:39:00,71.2,69.1,29.60,SE,135,0.0,0.0,93,0.00,,,0.41,WUHU216HW,2013-06-30 15:39:00,
2013-06-30 11:43:00,84.0,76.4,29.51,ESE,113,0.0,0.0,78,0.00,,,0.00,WUHU216HW,2013-06-30 15:43:00,
2013-06-30 11:48:00,84.3,76.3,29.51,ESE,113,0.0,0.0,77,0.00,,,0.00,WUHU216HW,2013-06-30 15:48:00,
2013-06-30 11:53:00,84.5,75.7,29.51,ESE,113,0.0,0.0,75,0.00,,,0.00,WUHU216HW,2013-06-30 15:53:00,
2013-06-30 11:58:00,84.5,76.5,29.51,SE,135,0.0,0.0,77,0.00,,,0.00,WUHU216HW,2013-06-30 15:58:00,
2013-06-30 12:03:00,83.8,75.4,29.51,SE,135,0.0,0.0,76,0.00,,,0.00,WUHU216HW,2013-06-30 16:03:00,
2013-06-30 12:08:00,83.8,75.4,29.51,SE,135,0.0,0.0,76,0.00,,,0.00,WUHU216HW,2013-06-30 16:08:00,
2013-06-30 12:13:00,83.8,75.4,29.51,SE,135,0.0,0.0,76,0.00,,,0.00,WUHU216HW,2013-06-30 16:13:00,
2013-06-30 12:18:00,84.7,75.9,29.51,SE,135,0.0,0.0,75,0.00,,,0.00,WUHU216HW,2013-06-30 16:18:00,
2013-06-30 12:23:00,84.7,75.9,29.51,SE,135,0.0,0.0,74,0.00,,,0.00,WUHU216HW,2013-06-30 16:23:00,
2013-06-30 12:26:00,71.4,69.2,29.60,SE,135,0.0,0.0,93,0.00,,,0.41,WUHU216HW,2013-06-30 16:26:00,
2013-06-30 12:28:00,85.1,75.4,29.51,SSW,203,0.0,0.0,73,0.00,,,0.00,WUHU216HW,2013-06-30 16:28:00,
2013-06-30 12:29:00,71.4,69.2,29.60,SE,135,0.0,0.0,93,0.00,,,0.41,WUHU216HW,2013-06-30 16:29:00,
2013-06-30 12:30:00,71.4,69.2,29.59,SE,135,0.0,0.0,93,0.00,,,0.41,WUHU216HW,2013-06-30 16:30:00,
2013-06-30 12:31:00,71.4,69.2,29.59,SE,135,0.0,0.0,93,0.00,,,0.41,WUHU216HW,2013-06-30 16:31:00,
2013-06-30 12:32:00,71.4,69.2,29.59,SE,135,0.0,0.0,93,0.00,,,0.41,WUHU216HW,2013-06-30 16:32:00,
2013-06-30 12:33:00,85.2,75.2,29.50,SE,135,0.0,0.0,74,0.00,,,0.00,WUHU216HW,2013-06-30 16:33:00,
2013-06-30 12:35:00,71.4,69.2,29.59,SE,135,0.0,0.0,93,0.00,,,0.41,WUHU216HW,2013-06-30 16:35:00,
2013-06-30 12:36:00,71.4,69.2,29.59,SE,135,0.0,0.0,93,0.00,,,0.41,WUHU216HW,2013-06-30 16:36:00,
2013-06-30 12:37:00,71.4,69.2,29.59,SE,135,0.0,0.0,93,0.00,,,0.41,WUHU216HW,2013-06-30 16:37:00,
2013-06-30 12:38:00,85.6,76.4,29.50,SSE,158,0.0,0.0,73,0.00,,,0.00,WUHU216HW,2013-06-30 16:38:00,
2013-06-30 12:39:00,71.4,69.2,29.59,SE,135,0.0,0.0,93,0.00,,,0.41,WUHU216HW,2013-06-30 16:39:00,
2013-06-30 12:40:00,71.4,69.2,29.59,SE,135,0.0,0.0,93,0.00,,,0.41,WUHU216HW,2013-06-30 16:40:00,
2013-06-30 12:41:00,71.4,69.2,29.59,SE,135,0.0,0.0,93,0.00,,,0.41,WUHU216HW,2013-06-30 16:41:00,
2013-06-30 12:43:00,85.6,76.8,29.50,ESE,113,0.0,0.0,74,0.00,,,0.00,WUHU216HW,2013-06-30 16:43:00,
2013-06-30 12:48:00,85.6,76.8,29.50,East,90,0.0,0.0,73,0.00,,,0.00,WUHU216HW,2013-06-30 16:48:00,
2013-06-30 12:53:00,85.6,76.8,29.50,ESE,113,0.0,0.0,75,0.00,,,0.00,WUHU216HW,2013-06-30 16:53:00,
2013-06-30 12:57:00,71.4,69.2,29.59,SE,135,0.0,0.0,93,0.00,,,0.41,WUHU216HW,2013-06-30 16:57:00,
2013-06-30 12:58:00,84.9,74.9,29.50,SE,135,0.0,0.0,72,0.00,,,0.00,WUHU216HW,2013-06-30 16:58:00,
2013-06-30 13:02:00,71.4,69.2,29.59,SE,135,0.0,0.0,93,0.00,,,0.41,WUHU216HW,2013-06-30 17:02:00,
2013-06-30 13:03:00,84.0,74.4,29.50,SE,135,0.0,0.0,73,0.00,,,0.00,WUHU216HW,2013-06-30 17:03:00,
2013-06-30 13:04:00,71.4,69.2,29.59,SE,135,0.0,0.0,93,0.00,,,0.41,WUHU216HW,2013-06-30 17:04:00,
2013-06-30 13:06:00,71.4,69.2,29.59,SE,135,0.0,0.0,93,0.00,,,0.41,WUHU216HW,2013-06-30 17:06:00,
2013-06-30 13:08:00,83.8,74.2,29.50,SE,135,0.0,0.0,73,0.00,,,0.00,WUHU216HW,2013-06-30 17:08:00,
2013-06-30 13:11:00,71.4,69.2,29.60,SE,135,0.0,0.0,93,0.00,,,0.41,WUHU216HW,2013-06-30 17:11:00,
2013-06-30 13:12:00,71.4,69.2,29.60,SE,135,0.0,0.0,93,0.00,,,0.41,WUHU216HW,2013-06-30 17:12:00,
2013-06-30 13:13:00,84.7,75.1,29.49,SE,135,0.0,0.0,73,0.00,,,0.00,WUHU216HW,2013-06-30 17:13:00,
2013-06-30 13:14:00,71.4,69.2,29.59,SE,135,0.0,0.0,93,0.00,,,0.41,WUHU216HW,2013-06-30 17:14:00,
2013-06-30 13:15:00,71.6,69.4,29.59,SE,135,0.0,0.0,93,0.00,,,0.41,WUHU216HW,2013-06-30 17:15:00,
2013-06-30 13:17:00,71.6,69.4,29.59,SE,135,0.0,0.0,93,0.00,,,0.41,WUHU216HW,2013-06-30 17:17:00,
2013-06-30 13:18:00,84.3,75.1,29.49,SE,135,0.0,0.0,73,0.00,,,0.00,WUHU216HW,2013-06-30 17:18:00,
2013-06-30 13:19:00,71.6,69.4,29.59,SE,135,0.0,0.0,93,0.00,,,0.41,WUHU216HW,2013-06-30 17:19:00,
2013-06-30 13:22:00,71.6,69.4,29.59,SE,135,0.0,0.0,93,0.00,,,0.41,WUHU216HW,2013-06-30 17:22:00,
2013-06-30 13:23:00,84.9,75.3,29.49,SSE,158,3.3,3.3,73,0.00,,,0.00,WUHU216HW,2013-06-30 17:23:00,
2013-06-30 13:24:00,71.6,69.4,29.59,SE,135,0.0,0.0,93,0.00,,,0.41,WUHU216HW,2013-06-30 17:24:00,
2013-06-30 13:26:00,71.6,69.4,29.59,SE,135,0.0,0.0,93,0.00,,,0.41,WUHU216HW,2013-06-30 17:26:00,
2013-06-30 13:28:00,84.2,75.3,29.49,SSE,158,0.0,3.3,75,0.00,,,0.00,WUHU216HW,2013-06-30 17:28:00,
2013-06-30 13:33:00,84.3,75.1,29.49,SSE,158,0.0,3.3,74,0.00,,,0.00,WUHU216HW,2013-06-30 17:33:00,
2013-06-30 13:39:00,84.9,76.4,29.49,SSE,158,0.0,0.0,76,0.00,,,0.00,WUHU216HW,2013-06-30 17:39:00,
2013-06-30 13:44:00,85.6,76.0,29.49,SSW,203,0.0,3.1,73,0.00,,,0.00,WUHU216HW,2013-06-30 17:44:00,
2013-06-30 13:46:00,71.7,69.6,29.60,SE,135,0.0,0.0,93,0.00,,,0.41,WUHU216HW,2013-06-30 17:46:00,
2013-06-30 13:47:00,71.7,69.6,29.60,SE,135,0.0,0.0,93,0.00,,,0.41,WUHU216HW,2013-06-30 17:47:00,
2013-06-30 13:49:00,85.6,76.0,29.49,SSE,158,3.3,3.3,71,0.00,,,0.00,WUHU216HW,2013-06-30 17:49:00,
2013-06-30 13:50:00,71.7,69.6,29.59,SE,135,0.0,0.0,93,0.00,,,0.41,WUHU216HW,2013-06-30 17:50:00,
2013-06-30 13:51:00,71.7,69.6,29.59,SE,135,0.0,0.0,93,0.00,,,0.41,WUHU216HW,2013-06-30 17:51:00,
2013-06-30 13:52:00,71.7,69.6,29.60,SE,135,0.0,0.0,93,0.00,,,0.41,WUHU216HW,2013-06-30 17:52:00,
2013-06-30 13:54:00,85.1,75.0,29.49,SSE,158,0.0,3.3,72,0.00,,,0.00,WUHU216HW,2013-06-30 17:54:00,
2013-06-30 13:57:00,71.7,69.6,29.60,SE,135,0.0,0.0,93,0.00,,,0.41,WUHU216HW,2013-06-30 17:57:00,
2013-06-30 13:58:00,71.7,69.6,29.60,SE,135,0.0,0.0,93,0.00,,,0.41,WUHU216HW,2013-06-30 17:58:00,
2013-06-30 13:59:00,85.6,76.4,29.49,SE,135,3.5,3.5,72,0.00,,,0.00,WUHU216HW,2013-06-30 17:59:00,
2013-06-30 14:00:00,71.7,69.6,29.60,SE,135,0.0,0.0,93,0.00,,,0.41,WUHU216HW,2013-06-30 18:00:00,
2013-06-30 14:01:00,71.7,69.6,29.60,SE,135,0.0,0.0,93,0.00,,,0.41,WUHU216HW,2013-06-30 18:01:00,
2013-06-30 14:03:00,71.7,69.6,29.60,SE,135,0.0,0.0,94,0.00,,,0.41,WUHU216HW,2013-06-30 18:03:00,
2013-06-30 14:04:00,84.5,74.9,29.49,SSE,158,0.0,3.5,73,0.00,,,0.00,WUHU216HW,2013-06-30 18:04:00,
2013-06-30 14:06:00,71.7,69.6,29.60,SE,135,0.0,0.0,94,0.00,,,0.41,WUHU216HW,2013-06-30 18:06:00,
2013-06-30 14:07:00,71.7,69.6,29.60,SE,135,0.0,0.0,94,0.00,,,0.41,WUHU216HW,2013-06-30 18:07:00,
2013-06-30 14:08:00,71.7,69.6,29.60,SE,135,0.0,0.0,94,0.00,,,0.41,WUHU216HW,2013-06-30 18:08:00,
2013-06-30 14:09:00,84.3,75.1,29.49,SSE,158,3.8,3.8,75,0.00,,,0.00,WUHU216HW,2013-06-30 18:09:00,
2013-06-30 14:11:00,71.7,69.6,29.61,SE,135,0.0,0.0,93,0.00,,,0.41,WUHU216HW,2013-06-30 18:11:00,
2013-06-30 14:12:00,71.7,69.6,29.61,SE,135,0.0,0.0,93,0.00,,,0.41,WUHU216HW,2013-06-30 18:12:00,
2013-06-30 14:13:00,71.7,69.6,29.61,SE,135,0.0,0.0,94,0.00,,,0.41,WUHU216HW,2013-06-30 18:13:00,
2013-06-30 14:14:00,85.2,75.2,29.48,South,180,0.0,3.8,72,0.00,,,0.00,WUHU216HW,2013-06-30 18:14:00,
2013-06-30 14:15:00,71.7,69.6,29.61,SE,135,0.0,0.0,94,0.00,,,0.41,WUHU216HW,2013-06-30 18:15:00,
2013-06-30 14:16:00,71.7,69.6,29.61,SE,135,0.0,0.0,94,0.00,,,0.41,WUHU216HW,2013-06-30 18:16:00,
2013-06-30 14:19:00,85.2,74.8,29.48,SSW,203,0.0,3.8,71,0.00,,,0.00,WUHU216HW,2013-06-30 18:19:00,
2013-06-30 14:21:00,71.7,69.6,29.61,SE,135,0.0,0.0,93,0.00,,,0.41,WUHU216HW,2013-06-30 18:21:00,
2013-06-30 14:23:00,71.7,69.6,29.61,SE,135,0.0,0.0,93,0.00,,,0.41,WUHU216HW,2013-06-30 18:23:00,
2013-06-30 14:24:00,85.6,76.0,29.48,South,180,0.0,0.0,73,0.00,,,0.00,WUHU216HW,2013-06-30 18:24:00,
2013-06-30 14:25:00,71.7,69.6,29.62,SE,135,0.0,0.0,93,0.00,,,0.41,WUHU216HW,2013-06-30 18:25:00,
2013-06-30 14:28:00,71.7,69.6,29.62,SE,135,0.0,0.0,93,0.00,,,0.41,WUHU216HW,2013-06-30 18:28:00,
2013-06-30 14:29:00,85.8,75.4,29.48,SW,225,0.0,0.0,71,0.00,,,0.00,WUHU216HW,2013-06-30 18:29:00,
2013-06-30 14:31:00,71.7,69.6,29.61,SE,135,0.0,0.0,93,0.00,,,0.41,WUHU216HW,2013-06-30 18:31:00,
2013-06-30 14:33:00,71.7,69.6,29.62,SE,135,0.0,0.0,93,0.00,,,0.41,WUHU216HW,2013-06-30 18:33:00,
2013-06-30 14:34:00,86.1,75.7,29.48,SW,225,1.1,1.1,71,0.00,,,0.00,WUHU216HW,2013-06-30 18:34:00,
2013-06-30 14:35:00,71.7,69.6,29.62,SE,135,0.0,0.0,93,0.00,,,0.41,WUHU216HW,2013-06-30 18:35:00,
2013-06-30 14:36:00,71.7,69.6,29.62,SE,135,0.0,0.0,93,0.00,,,0.41,WUHU216HW,2013-06-30 18:36:00,
2013-06-30 14:37:00,71.7,69.6,29.62,SE,135,0.0,0.0,93,0.00,,,0.41,WUHU216HW,2013-06-30 18:37:00,
2013-06-30 14:38:00,71.7,69.6,29.61,SE,135,0.0,0.0,93,0.00,,,0.41,WUHU216HW,2013-06-30 18:38:00,
2013-06-30 14:39:00,86.3,76.3,29.48,South,180,5.5,5.5,72,0.00,,,0.00,WUHU216HW,2013-06-30 18:39:00,
2013-06-30 14:44:00,85.4,74.6,29.47,South,180,0.0,5.5,70,0.00,,,0.00,WUHU216HW,2013-06-30 18:44:00,
2013-06-30 14:47:00,71.7,69.6,29.62,SE,135,0.0,0.0,93,0.00,,,0.41,WUHU216HW,2013-06-30 18:47:00,
2013-06-30 14:49:00,85.2,74.4,29.47,South,180,0.0,5.5,72,0.00,,,0.00,WUHU216HW,2013-06-30 18:49:00,
2013-06-30 14:50:00,71.7,69.6,29.62,SE,135,0.0,0.0,93,0.00,,,0.41,WUHU216HW,2013-06-30 18:50:00,
2013-06-30 14:52:00,71.6,69.4,29.62,SE,135,0.0,0.0,93,0.00,,,0.41,WUHU216HW,2013-06-30 18:52:00,
2013-06-30 14:53:00,71.6,69.4,29.62,SE,135,0.0,0.0,93,0.00,,,0.41,WUHU216HW,2013-06-30 18:53:00,
2013-06-30 14:54:00,84.9,74.1,29.48,SSE,158,3.1,4.2,70,0.00,,,0.00,WUHU216HW,2013-06-30 18:54:00,
2013-06-30 14:55:00,71.7,69.6,29.62,SE,135,0.0,0.0,93,0.00,,,0.41,WUHU216HW,2013-06-30 18:55:00,
2013-06-30 14:56:00,71.6,69.4,29.62,SE,135,0.0,0.0,93,0.00,,,0.41,WUHU216HW,2013-06-30 18:56:00,
2013-06-30 14:57:00,71.6,69.4,29.63,SE,135,0.0,0.0,93,0.00,,,0.41,WUHU216HW,2013-06-30 18:57:00,
2013-06-30 14:58:00,71.6,69.4,29.63,SE,135,0.0,0.0,93,0.00,,,0.41,WUHU216HW,2013-06-30 18:58:00,
2013-06-30 14:59:00,84.3,74.3,29.48,East,90,0.0,4.2,72,0.00,,,0.00,WUHU216HW,2013-06-30 18:59:00,
2013-06-30 15:02:00,71.7,69.6,29.62,SE,135,0.0,0.0,93,0.00,,,0.41,WUHU216HW,2013-06-30 19:02:00,
2013-06-30 15:03:00,71.7,69.6,29.62,SE,135,0.0,0.0,93,0.00,,,0.41,WUHU216HW,2013-06-30 19:03:00,
2013-06-30 15:04:00,84.3,74.3,29.48,South,180,3.8,3.8,71,0.00,,,0.00,WUHU216HW,2013-06-30 19:04:00,
2013-06-30 15:06:00,71.6,69.4,29.62,SE,135,0.0,0.0,93,0.00,,,0.41,WUHU216HW,2013-06-30 19:06:00,
2013-06-30 15:07:00,71.6,69.4,29.62,SE,135,0.0,0.0,93,0.00,,,0.41,WUHU216HW,2013-06-30 19:07:00,
2013-06-30 15:08:00,71.6,69.4,29.62,SE,135,0.0,0.0,93,0.00,,,0.41,WUHU216HW,2013-06-30 19:08:00,
2013-06-30 15:09:00,83.8,73.8,29.48,South,180,0.0,6.2,72,0.00,,,0.00,WUHU216HW,2013-06-30 19:09:00,
2013-06-30 15:10:00,71.7,69.6,29.62,SE,135,0.0,0.0,93,0.00,,,0.41,WUHU216HW,2013-06-30 19:10:00,
2013-06-30 15:11:00,71.7,69.6,29.62,SE,135,0.0,0.0,93,0.00,,,0.41,WUHU216HW,2013-06-30 19:11:00,
2013-06-30 15:12:00,71.7,69.6,29.62,SE,135,0.0,0.0,93,0.00,,,0.41,WUHU216HW,2013-06-30 19:12:00,
2013-06-30 15:14:00,83.8,73.8,29.49,ESE,113,4.0,6.2,72,0.00,,,0.00,WUHU216HW,2013-06-30 19:14:00,
2013-06-30 15:15:00,71.6,69.4,29.62,SE,135,0.0,0.0,93,0.00,,,0.41,WUHU216HW,2013-06-30 19:15:00,
2013-06-30 15:16:00,71.6,69.4,29.62,SE,135,0.0,0.0,93,0.00,,,0.41,WUHU216HW,2013-06-30 19:16:00,
2013-06-30 15:17:00,71.6,69.4,29.62,SE,135,0.0,0.0,93,0.00,,,0.41,WUHU216HW,2013-06-30 19:17:00,
2013-06-30 15:18:00,71.6,69.4,29.62,SE,135,0.0,0.0,93,0.00,,,0.41,WUHU216HW,2013-06-30 19:18:00,
2013-06-30 15:19:00,83.4,74.2,29.49,ESE,113,5.1,5.1,74,0.00,,,0.00,WUHU216HW,2013-06-30 19:19:00,
2013-06-30 15:20:00,71.7,69.6,29.62,SE,135,0.0,0.0,93,0.00,,,0.41,WUHU216HW,2013-06-30 19:20:00,
2013-06-30 15:21:00,71.7,69.6,29.62,SE,135,0.0,0.0,93,0.00,,,0.41,WUHU216HW,2013-06-30 19:21:00,
2013-06-30 15:24:00,83.1,73.9,29.49,SW,225,0.0,5.1,74,0.00,,,0.00,WUHU216HW,2013-06-30 19:24:00,
2013-06-30 15:25:00,71.7,69.6,29.62,SE,135,0.0,0.0,93,0.00,,,0.41,WUHU216HW,2013-06-30 19:25:00,
2013-06-30 15:29:00,83.1,73.9,29.49,SSE,158,0.0,5.1,75,0.00,,,0.00,WUHU216HW,2013-06-30 19:29:00,
2013-06-30 15:35:00,82.9,74.1,29.50,SSE,158,0.0,0.0,75,0.00,,,0.00,WUHU216HW,2013-06-30 19:35:00,
2013-06-30 15:40:00,82.7,74.0,29.51,WSW,248,0.0,0.0,75,0.00,,,0.00,WUHU216HW,2013-06-30 19:40:00,
2013-06-30 15:45:00,82.5,73.8,29.52,NNW,338,0.0,0.0,75,0.00,,,0.00,WUHU216HW,2013-06-30 19:45:00,
2013-06-30 15:50:00,80.9,72.7,29.53,NW,315,0.0,0.0,76,0.00,,,0.00,WUHU216HW,2013-06-30 19:50:00,
2013-06-30 15:51:00,71.7,69.6,29.63,SE,135,0.0,0.0,93,0.00,,,0.41,WUHU216HW,2013-06-30 19:51:00,
2013-06-30 15:52:00,71.7,69.6,29.63,SE,135,0.0,0.0,93,0.00,,,0.41,WUHU216HW,2013-06-30 19:52:00,
2013-06-30 15:53:00,71.7,69.6,29.63,SE,135,0.0,0.0,93,0.00,,,0.41,WUHU216HW,2013-06-30 19:53:00,
2013-06-30 15:54:00,71.7,69.6,29.63,SE,135,0.0,0.0,94,0.00,,,0.41,WUHU216HW,2013-06-30 19:54:00,
2013-06-30 15:55:00,79.5,71.2,29.52,NE,45,2.4,2.4,76,0.00,,,0.00,WUHU216HW,2013-06-30 19:55:00,
2013-06-30 15:58:00,71.9,70.1,29.63,SE,135,0.0,0.0,94,0.00,,,0.41,WUHU216HW,2013-06-30 19:58:00,
2013-06-30 15:59:00,71.9,70.1,29.63,SE,135,0.0,0.0,94,0.00,,,0.41,WUHU216HW,2013-06-30 19:59:00,
2013-06-30 16:00:00,78.4,70.9,29.53,ENE,68,0.0,2.4,78,0.00,,,0.00,WUHU216HW,2013-06-30 20:00:00,
2013-06-30 16:01:00,71.9,70.1,29.63,SE,135,0.0,0.0,94,0.00,,,0.41,WUHU216HW,2013-06-30 20:01:00,
2013-06-30 16:02:00,71.9,70.1,29.63,SE,135,0.0,0.0,94,0.00,,,0.41,WUHU216HW,2013-06-30 20:02:00,
2013-06-30 16:03:00,72.1,70.3,29.63,SE,135,0.0,0.0,94,0.00,,,0.41,WUHU216HW,2013-06-30 20:03:00,
2013-06-30 16:04:00,72.1,70.3,29.62,SE,135,0.0,0.0,94,0.00,,,0.41,WUHU216HW,2013-06-30 20:04:00,
2013-06-30 16:05:00,76.6,69.6,29.53,ENE,68,0.0,2.4,79,0.00,,,0.00,WUHU216HW,2013-06-30 20:05:00,
2013-06-30 16:06:00,72.1,70.3,29.62,SE,135,0.0,0.0,94,0.00,,,0.41,WUHU216HW,2013-06-30 20:06:00,
2013-06-30 16:09:00,72.3,70.4,29.62,SE,135,0.0,0.0,94,0.00,,,0.41,WUHU216HW,2013-06-30 20:09:00,
2013-06-30 16:10:00,75.7,69.2,29.53,ESE,113,0.0,0.0,80,0.00,,,0.00,WUHU216HW,2013-06-30 20:10:00,
2013-06-30 16:11:00,72.3,70.4,29.62,SE,135,0.0,0.0,94,0.00,,,0.41,WUHU216HW,2013-06-30 20:11:00,
2013-06-30 16:12:00,72.3,70.4,29.62,SE,135,0.0,0.0,94,0.00,,,0.41,WUHU216HW,2013-06-30 20:12:00,
2013-06-30 16:13:00,72.3,70.4,29.62,SE,135,0.0,0.0,94,0.00,,,0.41,WUHU216HW,2013-06-30 20:13:00,
2013-06-30 16:15:00,75.2,69.0,29.53,NW,315,0.0,0.0,81,0.00,,,0.00,WUHU216HW,2013-06-30 20:15:00,
2013-06-30 16:16:00,72.5,70.6,29.62,SE,135,0.0,0.0,94,0.00,,,0.41,WUHU216HW,2013-06-30 20:16:00,
2013-06-30 16:17:00,72.5,70.6,29.63,SE,135,0.0,0.0,94,0.00,,,0.41,WUHU216HW,2013-06-30 20:17:00,
2013-06-30 16:20:00,74.6,68.5,29.53,NW,315,0.0,0.0,81,0.00,,,0.00,WUHU216HW,2013-06-30 20:20:00,
2013-06-30 16:21:00,72.5,70.6,29.63,SE,135,0.0,0.0,94,0.00,,,0.41,WUHU216HW,2013-06-30 20:21:00,
2013-06-30 16:25:00,74.4,68.6,29.52,NW,315,0.0,0.0,82,0.00,,,0.00,WUHU216HW,2013-06-30 20:25:00,
2013-06-30 16:30:00,74.3,68.5,29.53,NE,45,0.0,0.0,83,0.00,,,0.00,WUHU216HW,2013-06-30 20:30:00,
2013-06-30 16:35:00,74.3,68.5,29.53,North,0,0.0,1.3,82,0.00,,,0.00,WUHU216HW,2013-06-30 20:35:00,
2013-06-30 16:39:00,72.6,70.8,29.63,SE,135,0.0,0.0,94,0.00,,,0.41,WUHU216HW,2013-06-30 20:39:00,
2013-06-30 16:40:00,74.1,68.3,29.54,North,0,0.0,1.3,82,0.00,,,0.00,WUHU216HW,2013-06-30 20:40:00,
2013-06-30 16:41:00,72.6,70.8,29.63,SE,135,0.0,0.0,94,0.00,,,0.41,WUHU216HW,2013-06-30 20:41:00,
2013-06-30 16:43:00,72.6,70.8,29.63,SE,135,0.0,0.0,94,0.00,,,0.41,WUHU216HW,2013-06-30 20:43:00,
2013-06-30 16:44:00,72.6,70.8,29.63,SE,135,0.0,0.0,94,0.00,,,0.41,WUHU216HW,2013-06-30 20:44:00,
2013-06-30 16:45:00,74.3,68.5,29.54,North,0,0.0,0.0,82,0.00,,,0.00,WUHU216HW,2013-06-30 20:45:00,
2013-06-30 16:48:00,72.6,70.8,29.63,SE,135,0.0,0.0,94,0.00,,,0.41,WUHU216HW,2013-06-30 20:48:00,
2013-06-30 16:49:00,72.6,70.8,29.63,SE,135,0.0,0.0,94,0.00,,,0.41,WUHU216HW,2013-06-30 20:49:00,
2013-06-30 16:50:00,74.1,68.6,29.56,NNE,23,0.0,0.0,83,0.00,,,0.00,WUHU216HW,2013-06-30 20:50:00,
2013-06-30 16:51:00,72.6,70.8,29.63,SE,135,0.0,0.0,94,0.00,,,0.41,WUHU216HW,2013-06-30 20:51:00,
2013-06-30 16:52:00,72.6,70.8,29.63,SE,135,0.0,0.0,94,0.00,,,0.41,WUHU216HW,2013-06-30 20:52:00,
2013-06-30 16:53:00,72.6,70.8,29.63,SE,135,0.0,0.0,94,0.00,,,0.41,WUHU216HW,2013-06-30 20:53:00,
2013-06-30 16:54:00,72.6,70.8,29.63,SE,135,0.0,0.0,94,0.00,,,0.41,WUHU216HW,2013-06-30 20:54:00,
2013-06-30 16:55:00,73.9,68.4,29.55,NNE,23,0.0,0.0,83,0.00,,,0.00,WUHU216HW,2013-06-30 20:55:00,
2013-06-30 16:56:00,72.6,70.8,29.63,SE,135,0.0,0.0,94,0.00,,,0.41,WUHU216HW,2013-06-30 20:56:00,
2013-06-30 16:57:00,72.6,70.8,29.63,SE,135,0.0,0.0,94,0.00,,,0.41,WUHU216HW,2013-06-30 20:57:00,
2013-06-30 16:58:00,72.6,70.8,29.64,SE,135,0.0,0.0,94,0.00,,,0.41,WUHU216HW,2013-06-30 20:58:00,
2013-06-30 17:00:00,73.5,68.8,29.54,NNE,23,0.0,0.0,85,0.00,,,0.00,WUHU216HW,2013-06-30 21:00:00,
2013-06-30 17:01:00,72.6,70.8,29.64,SE,135,0.0,0.0,94,0.00,,,0.41,WUHU216HW,2013-06-30 21:01:00,
2013-06-30 17:02:00,72.6,70.8,29.64,SE,135,0.0,0.0,94,0.00,,,0.41,WUHU216HW,2013-06-30 21:02:00,
2013-06-30 17:04:00,72.6,70.8,29.63,SE,135,0.0,0.0,93,0.00,,,0.41,WUHU216HW,2013-06-30 21:04:00,
2013-06-30 17:05:00,73.5,68.8,29.54,NNE,23,0.0,0.0,85,0.00,,,0.00,WUHU216HW,2013-06-30 21:05:00,
2013-06-30 17:06:00,72.6,70.8,29.64,SE,135,0.0,0.0,93,0.00,,,0.41,WUHU216HW,2013-06-30 21:06:00,
2013-06-30 17:07:00,72.6,70.8,29.64,SE,135,0.0,0.0,93,0.00,,,0.41,WUHU216HW,2013-06-30 21:07:00,
2013-06-30 17:09:00,72.6,70.8,29.64,SE,135,0.0,0.0,93,0.00,,,0.41,WUHU216HW,2013-06-30 21:09:00,
2013-06-30 17:10:00,73.4,68.6,29.54,NNE,23,0.0,0.0,85,0.00,,,0.00,WUHU216HW,2013-06-30 21:10:00,
2013-06-30 17:12:00,72.6,70.8,29.64,SE,135,0.0,0.0,93,0.00,,,0.41,WUHU216HW,2013-06-30 21:12:00,
2013-06-30 17:13:00,72.8,70.7,29.64,SE,135,0.0,0.0,93,0.00,,,0.41,WUHU216HW,2013-06-30 21:13:00,
2013-06-30 17:14:00,72.8,70.7,29.64,SE,135,0.0,0.0,93,0.00,,,0.41,WUHU216HW,2013-06-30 21:14:00,
2013-06-30 17:15:00,73.2,68.4,29.54,NNE,23,0.0,0.0,86,0.00,,,0.00,WUHU216HW,2013-06-30 21:15:00,
2013-06-30 17:20:00,73.2,68.4,29.54,NNE,23,0.0,0.0,85,0.00,,,0.00,WUHU216HW,2013-06-30 21:20:00,
2013-06-30 17:25:00,73.2,68.4,29.54,NNE,23,0.0,0.0,86,0.00,,,0.00,WUHU216HW,2013-06-30 21:25:00,
2013-06-30 17:30:00,73.0,68.6,29.54,NNE,23,0.0,0.0,86,0.00,,,0.00,WUHU216HW,2013-06-30 21:30:00,
2013-06-30 17:35:00,73.0,68.6,29.53,NNE,23,0.0,0.0,87,0.00,,,0.00,WUHU216HW,2013-06-30 21:35:00,
2013-06-30 17:40:00,73.0,68.6,29.53,NNE,23,0.0,0.0,87,0.00,,,0.00,WUHU216HW,2013-06-30 21:40:00,
2013-06-30 17:46:00,73.0,68.6,29.54,NNE,23,0.0,0.0,87,0.00,,,0.00,WUHU216HW,2013-06-30 21:46:00,
2013-06-30 17:51:00,73.0,68.6,29.53,NNE,23,0.0,0.0,87,0.00,,,0.00,WUHU216HW,2013-06-30 21:51:00,
2013-06-30 17:56:00,73.2,69.1,29.53,NNE,23,0.0,0.0,87,0.00,,,0.00,WUHU216HW,2013-06-30 21:56:00,
2013-06-30 18:01:00,73.2,69.1,29.52,NNE,23,0.0,0.0,87,0.00,,,0.00,WUHU216HW,2013-06-30 22:01:00,
2013-06-30 18:06:00,73.2,69.1,29.54,NNE,23,0.0,0.0,87,0.00,,,0.00,WUHU216HW,2013-06-30 22:06:00,
2013-06-30 18:11:00,73.0,68.9,29.54,NNE,23,0.0,0.0,87,0.00,,,0.00,WUHU216HW,2013-06-30 22:11:00,
2013-06-30 18:13:00,71.9,69.8,29.65,ESE,113,0.0,0.0,93,0.00,,,0.41,WUHU216HW,2013-06-30 22:13:00,
2013-06-30 18:14:00,71.7,69.6,29.65,ESE,113,0.0,0.0,93,0.00,,,0.41,WUHU216HW,2013-06-30 22:14:00,
2013-06-30 18:15:00,71.7,69.6,29.65,ESE,113,0.0,0.0,93,0.00,,,0.41,WUHU216HW,2013-06-30 22:15:00,
2013-06-30 18:16:00,73.0,68.9,29.54,NNE,23,0.0,0.0,88,0.00,,,0.00,WUHU216HW,2013-06-30 22:16:00,
2013-06-30 18:17:00,71.9,69.8,29.65,ESE,113,0.0,0.0,93,0.00,,,0.41,WUHU216HW,2013-06-30 22:17:00,
2013-06-30 18:18:00,71.9,69.8,29.65,ESE,113,0.0,0.0,93,0.00,,,0.41,WUHU216HW,2013-06-30 22:18:00,
2013-06-30 18:20:00,71.7,69.6,29.65,ESE,113,0.0,0.0,93,0.00,,,0.41,WUHU216HW,2013-06-30 22:20:00,
2013-06-30 18:21:00,73.0,68.9,29.54,NNE,23,0.0,0.0,88,0.00,,,0.00,WUHU216HW,2013-06-30 22:21:00,
2013-06-30 18:22:00,71.7,69.6,29.65,ESE,113,0.0,0.0,93,0.00,,,0.41,WUHU216HW,2013-06-30 22:22:00,
2013-06-30 18:23:00,71.7,69.6,29.65,ESE,113,0.0,0.0,93,0.00,,,0.41,WUHU216HW,2013-06-30 22:23:00,
2013-06-30 18:24:00,71.7,69.6,29.65,ESE,113,0.0,0.0,93,0.00,,,0.41,WUHU216HW,2013-06-30 22:24:00,
2013-06-30 18:25:00,71.9,69.8,29.65,ESE,113,0.0,0.0,93,0.00,,,0.41,WUHU216HW,2013-06-30 22:25:00,
2013-06-30 18:26:00,72.6,68.9,29.54,NNE,23,0.0,0.0,88,0.02,,,0.02,WUHU216HW,2013-06-30 22:26:00,
2013-06-30 18:27:00,71.9,69.8,29.65,ESE,113,0.0,0.0,93,0.00,,,0.41,WUHU216HW,2013-06-30 22:27:00,
2013-06-30 18:28:00,71.9,69.8,29.65,ESE,113,0.0,0.0,93,0.00,,,0.41,WUHU216HW,2013-06-30 22:28:00,
2013-06-30 18:31:00,72.3,68.5,29.55,NNE,23,0.0,0.0,88,0.02,,,0.02,WUHU216HW,2013-06-30 22:31:00,
2013-06-30 18:36:00,72.3,68.5,29.54,NNE,23,0.0,0.0,88,0.02,,,0.02,WUHU216HW,2013-06-30 22:36:00,
2013-06-30 18:41:00,72.1,68.3,29.54,NNE,23,0.0,0.0,88,0.02,,,0.02,WUHU216HW,2013-06-30 22:41:00,
2013-06-30 18:46:00,71.9,68.2,29.54,NNE,23,0.0,0.0,88,0.02,,,0.02,WUHU216HW,2013-06-30 22:46:00,
2013-06-30 18:51:00,71.7,68.0,29.54,NNE,23,0.0,0.0,88,0.02,,,0.02,WUHU216HW,2013-06-30 22:51:00,
2013-06-30 18:56:00,71.7,68.0,29.54,NNE,23,0.0,0.0,89,0.04,,,0.04,WUHU216HW,2013-06-30 22:56:00,
2013-06-30 19:01:00,71.4,68.0,29.54,NNE,23,0.0,0.0,89,0.04,,,0.04,WUHU216HW,2013-06-30 23:01:00,
2013-06-30 19:06:00,71.4,68.0,29.54,NNE,23,0.0,0.0,89,0.06,,,0.06,WUHU216HW,2013-06-30 23:06:00,
2013-06-30 19:11:00,71.2,67.8,29.54,NNE,23,0.0,0.0,89,0.06,,,0.06,WUHU216HW,2013-06-30 23:11:00,
2013-06-30 19:17:00,71.2,67.8,29.54,NNE,23,0.0,0.0,89,0.06,,,0.06,WUHU216HW,2013-06-30 23:17:00,
2013-06-30 19:22:00,71.2,67.8,29.54,NNE,23,0.0,0.0,89,0.06,,,0.06,WUHU216HW,2013-06-30 23:22:00,
2013-06-30 19:27:00,71.2,67.8,29.55,NNE,23,0.0,0.0,89,0.06,,,0.06,WUHU216HW,2013-06-30 23:27:00,
2013-06-30 19:32:00,71.2,67.8,29.55,NNE,23,0.0,0.0,89,0.06,,,0.06,WUHU216HW,2013-06-30 23:32:00,
2013-06-30 19:37:00,71.2,67.8,29.55,NNE,23,0.0,0.0,89,0.06,,,0.06,WUHU216HW,2013-06-30 23:37:00,
2013-06-30 19:42:00,71.2,67.8,29.55,NNE,23,0.0,0.0,90,0.06,,,0.06,WUHU216HW,2013-06-30 23:42:00,
2013-06-30 19:47:00,71.2,67.8,29.54,NNE,23,0.0,0.0,90,0.06,,,0.06,WUHU216HW,2013-06-30 23:47:00,
2013-06-30 19:52:00,71.2,67.8,29.54,NNE,23,0.0,0.0,90,0.06,,,0.06,WUHU216HW,2013-06-30 23:52:00,
2013-06-30 19:58:00,71.0,68.0,29.54,NNE,23,0.0,0.0,90,0.06,,,0.06,WUHU216HW,2013-06-30 23:58:00,
2013-06-30 20:03:00,71.2,68.1,29.54,NNE,23,0.0,0.0,90,0.04,,,0.08,WUHU216HW,2013-07-01 00:03:00,
2013-06-30 20:08:00,71.2,68.1,29.55,NNE,23,0.0,0.0,90,0.04,,,0.08,WUHU216HW,2013-07-01 00:08:00,
2013-06-30 20:13:00,71.2,68.1,29.55,NNE,23,0.0,0.0,90,0.04,,,0.08,WUHU216HW,2013-07-01 00:13:00,
2013-06-30 20:16:00,73.9,71.1,29.66,ESE,113,0.0,0.0,91,0.00,,,0.41,WUHU216HW,2013-07-01 00:16:00,
2013-06-30 20:17:00,73.9,71.1,29.66,ESE,113,0.0,0.0,91,0.00,,,0.41,WUHU216HW,2013-07-01 00:17:00,
2013-06-30 20:18:00,71.0,68.0,29.56,NNE,23,0.0,0.0,90,0.04,,,0.08,WUHU216HW,2013-07-01 00:18:00,
2013-06-30 20:19:00,73.9,71.1,29.66,ESE,113,0.0,0.0,91,0.00,,,0.41,WUHU216HW,2013-07-01 00:19:00,
2013-06-30 20:20:00,73.9,71.1,29.66,ESE,113,0.0,0.0,91,0.00,,,0.41,WUHU216HW,2013-07-01 00:20:00,
2013-06-30 20:21:00,73.9,71.1,29.66,ESE,113,0.0,0.0,91,0.00,,,0.41,WUHU216HW,2013-07-01 00:21:00,
2013-06-30 20:22:00,73.9,71.1,29.66,ESE,113,0.0,0.0,91,0.00,,,0.41,WUHU216HW,2013-07-01 00:22:00,
2013-06-30 20:23:00,71.2,68.1,29.56,NNE,23,0.0,0.0,90,0.04,,,0.08,WUHU216HW,2013-07-01 00:23:00,
2013-06-30 20:24:00,74.1,71.3,29.66,ESE,113,0.0,0.0,91,0.00,,,0.41,WUHU216HW,2013-07-01 00:24:00,
2013-06-30 20:25:00,74.1,71.3,29.66,ESE,113,0.0,0.0,91,0.00,,,0.41,WUHU216HW,2013-07-01 00:25:00,
2013-06-30 20:26:00,74.1,71.3,29.66,ESE,113,0.0,0.0,91,0.00,,,0.41,WUHU216HW,2013-07-01 00:26:00,
2013-06-30 20:27:00,74.1,71.3,29.66,ESE,113,0.0,0.0,91,0.00,,,0.41,WUHU216HW,2013-07-01 00:27:00,
2013-06-30 20:28:00,71.2,68.1,29.56,NNE,23,0.0,0.0,90,0.04,,,0.08,WUHU216HW,2013-07-01 00:28:00,
2013-06-30 20:29:00,74.1,71.3,29.66,ESE,113,0.0,0.0,91,0.00,,,0.41,WUHU216HW,2013-07-01 00:29:00,
2013-06-30 20:30:00,74.1,71.3,29.66,ESE,113,0.0,0.0,91,0.00,,,0.41,WUHU216HW,2013-07-01 00:30:00,
2013-06-30 20:31:00,74.1,71.3,29.66,ESE,113,0.0,0.0,91,0.00,,,0.41,WUHU216HW,2013-07-01 00:31:00,
2013-06-30 20:32:00,74.3,71.5,29.66,ESE,113,0.0,0.0,91,0.00,,,0.41,WUHU216HW,2013-07-01 00:32:00,
2013-06-30 20:33:00,71.2,68.1,29.56,NNE,23,0.0,0.0,90,0.04,,,0.10,WUHU216HW,2013-07-01 00:33:00,
2013-06-30 20:34:00,74.3,71.5,29.66,ESE,113,0.0,0.0,91,0.00,,,0.41,WUHU216HW,2013-07-01 00:34:00,
2013-06-30 20:35:00,74.3,71.5,29.66,ESE,113,0.0,0.0,91,0.00,,,0.41,WUHU216HW,2013-07-01 00:35:00,
2013-06-30 20:36:00,74.3,71.5,29.66,ESE,113,0.0,0.0,91,0.00,,,0.41,WUHU216HW,2013-07-01 00:36:00,
2013-06-30 20:37:00,74.3,71.5,29.66,ESE,113,0.0,0.0,91,0.00,,,0.41,WUHU216HW,2013-07-01 00:37:00,
2013-06-30 20:38:00,71.2,68.1,29.56,NNE,23,0.0,0.0,90,0.04,,,0.10,WUHU216HW,2013-07-01 00:38:00,
2013-06-30 20:39:00,74.1,71.3,29.66,ESE,113,0.0,0.0,91,0.00,,,0.41,WUHU216HW,2013-07-01 00:39:00,
2013-06-30 20:40:00,74.3,71.5,29.66,ESE,113,0.0,0.0,91,0.00,,,0.41,WUHU216HW,2013-07-01 00:40:00,
2013-06-30 20:41:00,74.3,71.5,29.66,ESE,113,0.0,0.0,91,0.00,,,0.41,WUHU216HW,2013-07-01 00:41:00,
2013-06-30 20:42:00,74.3,71.5,29.66,ESE,113,0.0,0.0,91,0.00,,,0.41,WUHU216HW,2013-07-01 00:42:00,
2013-06-30 20:43:00,71.2,68.1,29.56,NNE,23,0.0,0.0,90,0.06,,,0.12,WUHU216HW,2013-07-01 00:43:00,
2013-06-30 20:44:00,74.1,71.0,29.66,ESE,113,0.0,0.0,90,0.00,,,0.41,WUHU216HW,2013-07-01 00:44:00,
2013-06-30 20:48:00,71.0,68.0,29.56,NNE,23,0.0,0.0,90,0.06,,,0.12,WUHU216HW,2013-07-01 00:48:00,
2013-06-30 20:53:00,71.2,68.1,29.56,NNE,23,0.0,0.0,90,0.10,,,0.16,WUHU216HW,2013-07-01 00:53:00,
2013-06-30 20:58:00,71.0,68.0,29.55,NNE,23,0.0,0.0,90,0.10,,,0.16,WUHU216HW,2013-07-01 00:58:00,
2013-06-30 20:59:00,74.3,71.2,29.65,NNE,23,0.0,0.0,90,0.00,,,0.41,WUHU216HW,2013-07-01 00:59:00,
2013-06-30 21:00:00,74.3,71.2,29.65,NNE,23,0.0,0.0,90,0.00,,,0.41,WUHU216HW,2013-07-01 01:00:00,
2013-06-30 21:02:00,74.4,71.4,29.65,NNE,23,0.0,0.0,90,0.00,,,0.41,WUHU216HW,2013-07-01 01:02:00,
2013-06-30 21:03:00,71.2,68.1,29.55,NNE,23,0.0,0.0,90,0.08,,,0.16,WUHU216HW,2013-07-01 01:03:00,
2013-06-30 21:04:00,74.4,71.4,29.65,NNE,23,0.0,0.0,90,0.00,,,0.41,WUHU216HW,2013-07-01 01:04:00,
2013-06-30 21:08:00,71.2,68.1,29.55,NNE,23,0.0,0.0,90,0.08,,,0.16,WUHU216HW,2013-07-01 01:08:00,
2013-06-30 21:09:00,74.8,71.4,29.66,NNE,23,0.0,0.0,89,0.00,,,0.41,WUHU216HW,2013-07-01 01:09:00,
2013-06-30 21:10:00,74.8,71.4,29.66,NNE,23,0.0,0.0,89,0.00,,,0.41,WUHU216HW,2013-07-01 01:10:00,
2013-06-30 21:11:00,74.8,71.4,29.66,NNE,23,0.0,0.0,89,0.00,,,0.41,WUHU216HW,2013-07-01 01:11:00,
2013-06-30 21:12:00,74.8,71.4,29.65,NNE,23,0.0,0.0,89,0.00,,,0.41,WUHU216HW,2013-07-01 01:12:00,
2013-06-30 21:13:00,71.2,68.1,29.56,NNE,23,0.0,0.0,90,0.08,,,0.16,WUHU216HW,2013-07-01 01:13:00,
2013-06-30 21:14:00,74.8,71.4,29.65,NNE,23,0.0,0.0,89,0.00,,,0.41,WUHU216HW,2013-07-01 01:14:00,
2013-06-30 21:15:00,74.8,71.4,29.65,North,0,0.0,0.0,89,0.00,,,0.41,WUHU216HW,2013-07-01 01:15:00,
2013-06-30 21:16:00,74.8,71.4,29.65,North,0,0.0,0.0,89,0.00,,,0.41,WUHU216HW,2013-07-01 01:16:00,
2013-06-30 21:17:00,74.8,71.4,29.65,North,0,0.0,0.0,89,0.00,,,0.41,WUHU216HW,2013-07-01 01:17:00,
2013-06-30 21:18:00,71.2,68.1,29.56,NNE,23,0.0,0.0,90,0.08,,,0.16,WUHU216HW,2013-07-01 01:18:00,
2013-06-30 21:19:00,74.8,71.4,29.65,NNE,23,0.0,0.0,89,0.00,,,0.41,WUHU216HW,2013-07-01 01:19:00,
2013-06-30 21:20:00,74.8,71.4,29.65,NNE,23,0.0,0.0,89,0.00,,,0.41,WUHU216HW,2013-07-01 01:20:00,
2013-06-30 21:21:00,74.8,71.4,29.65,North,0,0.0,0.0,89,0.00,,,0.41,WUHU216HW,2013-07-01 01:21:00,
2013-06-30 21:22:00,74.8,71.4,29.65,North,0,0.0,0.0,89,0.00,,,0.41,WUHU216HW,2013-07-01 01:22:00,
2013-06-30 21:23:00,71.2,68.1,29.56,NNE,23,0.0,0.0,90,0.08,,,0.16,WUHU216HW,2013-07-01 01:23:00,
2013-06-30 21:24:00,74.8,71.4,29.65,NNW,338,0.0,0.0,88,0.00,,,0.41,WUHU216HW,2013-07-01 01:24:00,
2013-06-30 21:25:00,74.8,71.4,29.65,NNW,338,0.0,0.0,88,0.00,,,0.41,WUHU216HW,2013-07-01 01:25:00,
2013-06-30 21:26:00,74.8,71.4,29.65,NNW,338,0.0,0.0,88,0.00,,,0.41,WUHU216HW,2013-07-01 01:26:00,
2013-06-30 21:27:00,74.8,71.4,29.65,NNW,338,0.0,0.0,88,0.00,,,0.41,WUHU216HW,2013-07-01 01:27:00,
2013-06-30 21:28:00,71.2,68.1,29.56,NNE,23,0.0,0.0,90,0.08,,,0.16,WUHU216HW,2013-07-01 01:28:00,
2013-06-30 21:29:00,74.8,71.4,29.65,North,0,0.0,0.0,88,0.00,,,0.41,WUHU216HW,2013-07-01 01:29:00,
2013-06-30 21:30:00,74.8,71.4,29.65,NNW,338,0.0,0.0,88,0.00,,,0.41,WUHU216HW,2013-07-01 01:30:00,
2013-06-30 21:31:00,74.8,71.4,29.65,NNW,338,0.0,0.0,88,0.00,,,0.41,WUHU216HW,2013-07-01 01:31:00,
2013-06-30 21:32:00,74.8,71.4,29.65,NNW,338,0.0,0.0,88,0.00,,,0.41,WUHU216HW,2013-07-01 01:32:00,
2013-06-30 21:33:00,71.0,68.0,29.57,NNE,23,0.0,0.0,90,0.08,,,0.16,WUHU216HW,2013-07-01 01:33:00,
2013-06-30 21:34:00,74.8,71.4,29.66,NNW,338,0.0,0.0,88,0.00,,,0.41,WUHU216HW,2013-07-01 01:34:00,
2013-06-30 21:35:00,74.8,71.4,29.65,NNW,338,0.0,0.0,88,0.00,,,0.41,WUHU216HW,2013-07-01 01:35:00,
2013-06-30 21:36:00,74.8,71.4,29.65,NNW,338,0.0,0.0,88,0.00,,,0.41,WUHU216HW,2013-07-01 01:36:00,
2013-06-30 21:37:00,75.0,71.2,29.65,NNW,338,2.4,2.4,88,0.00,,,0.41,WUHU216HW,2013-07-01 01:37:00,
2013-06-30 21:38:00,71.2,68.4,29.57,NNE,23,0.0,0.0,91,0.08,,,0.16,WUHU216HW,2013-07-01 01:38:00,
2013-06-30 21:39:00,74.8,71.0,29.65,NNW,338,0.0,2.4,88,0.00,,,0.41,WUHU216HW,2013-07-01 01:39:00,
2013-06-30 21:40:00,74.8,71.0,29.66,NNW,338,0.0,2.4,88,0.00,,,0.41,WUHU216HW,2013-07-01 01:40:00,
2013-06-30 21:41:00,74.8,71.0,29.66,NE,45,0.0,2.4,87,0.00,,,0.41,WUHU216HW,2013-07-01 01:41:00,
2013-06-30 21:42:00,74.8,71.0,29.66,NE,45,0.0,2.4,87,0.00,,,0.41,WUHU216HW,2013-07-01 01:42:00,
2013-06-30 21:43:00,71.0,68.3,29.56,NNE,23,0.0,0.0,91,0.08,,,0.16,WUHU216HW,2013-07-01 01:43:00,
2013-06-30 21:44:00,74.8,71.0,29.65,NE,45,0.0,2.4,87,0.00,,,0.41,WUHU216HW,2013-07-01 01:44:00,
2013-06-30 21:45:00,74.8,71.0,29.65,NNW,338,0.0,2.4,87,0.00,,,0.41,WUHU216HW,2013-07-01 01:45:00,
2013-06-30 21:46:00,74.8,71.0,29.65,NNW,338,0.0,2.4,87,0.00,,,0.41,WUHU216HW,2013-07-01 01:46:00,
2013-06-30 21:47:00,74.8,71.0,29.66,NNW,338,0.0,2.4,87,0.00,,,0.41,WUHU216HW,2013-07-01 01:47:00,
2013-06-30 21:48:00,71.0,68.3,29.56,NNE,23,0.0,0.0,91,0.08,,,0.16,WUHU216HW,2013-07-01 01:48:00,
2013-06-30 21:49:00,74.8,70.7,29.66,NNW,338,4.0,4.0,87,0.00,,,0.41,WUHU216HW,2013-07-01 01:49:00,
2013-06-30 21:50:00,74.8,70.7,29.65,NNW,338,4.0,4.0,87,0.00,,,0.41,WUHU216HW,2013-07-01 01:50:00,
2013-06-30 21:51:00,74.8,70.7,29.65,NNW,338,4.0,4.0,87,0.00,,,0.41,WUHU216HW,2013-07-01 01:51:00,
2013-06-30 21:52:00,74.8,70.7,29.65,NNW,338,0.0,4.0,87,0.00,,,0.41,WUHU216HW,2013-07-01 01:52:00,
2013-06-30 21:53:00,74.8,70.7,29.65,NNW,338,0.0,4.0,87,0.00,,,0.41,WUHU216HW,2013-07-01 01:53:00,
2013-06-30 21:54:00,71.0,68.3,29.57,NNE,23,0.0,0.0,91,0.08,,,0.16,WUHU216HW,2013-07-01 01:54:00,
2013-06-30 21:55:00,75.0,70.9,29.65,NW,315,1.5,4.0,87,0.00,,,0.41,WUHU216HW,2013-07-01 01:55:00,
2013-06-30 21:56:00,75.0,70.9,29.65,NE,45,0.0,4.0,87,0.00,,,0.41,WUHU216HW,2013-07-01 01:56:00,
2013-06-30 21:57:00,75.0,70.9,29.65,NE,45,0.0,4.0,87,0.00,,,0.41,WUHU216HW,2013-07-01 01:57:00,
2013-06-30 21:58:00,75.2,71.1,29.65,NNW,338,0.0,4.0,87,0.00,,,0.41,WUHU216HW,2013-07-01 01:58:00,
2013-06-30 21:59:00,70.8,68.1,29.57,NNE,23,0.0,0.0,91,0.08,,,0.16,WUHU216HW,2013-07-01 01:59:00,
2013-06-30 22:00:00,75.3,71.2,29.65,NNW,338,0.0,4.0,87,0.00,,,0.41,WUHU216HW,2013-07-01 02:00:00,
2013-06-30 22:01:00,75.3,71.2,29.65,NNW,338,0.0,4.0,87,0.00,,,0.41,WUHU216HW,2013-07-01 02:01:00,
2013-06-30 22:02:00,75.3,71.2,29.66,NNW,338,0.0,1.5,87,0.00,,,0.41,WUHU216HW,2013-07-01 02:02:00,
2013-06-30 22:03:00,75.7,71.2,29.66,NW,315,0.0,1.5,86,0.00,,,0.41,WUHU216HW,2013-07-01 02:03:00,
2013-06-30 22:04:00,71.0,68.3,29.57,NNE,23,0.0,0.0,91,0.00,,,0.16,WUHU216HW,2013-07-01 02:04:00,
2013-06-30 22:05:00,75.7,71.2,29.65,NNW,338,0.0,1.5,86,0.00,,,0.41,WUHU216HW,2013-07-01 02:05:00,
2013-06-30 22:06:00,75.7,71.2,29.66,NNW,338,0.0,0.0,86,0.00,,,0.41,WUHU216HW,2013-07-01 02:06:00,
2013-06-30 22:07:00,75.9,71.4,29.66,NW,315,0.0,0.0,86,0.00,,,0.41,WUHU216HW,2013-07-01 02:07:00,
2013-06-30 22:08:00,75.9,71.4,29.66,NW,315,0.0,0.0,86,0.00,,,0.41,WUHU216HW,2013-07-01 02:08:00,
2013-06-30 22:09:00,71.0,68.3,29.57,NNE,23,0.0,0.0,91,0.00,,,0.16,WUHU216HW,2013-07-01 02:09:00,
2013-06-30 22:10:00,76.1,71.2,29.66,NW,315,0.0,0.0,85,0.00,,,0.41,WUHU216HW,2013-07-01 02:10:00,
2013-06-30 22:11:00,76.1,71.2,29.66,NNW,338,0.0,0.0,85,0.00,,,0.41,WUHU216HW,2013-07-01 02:11:00,
2013-06-30 22:12:00,76.1,71.2,29.66,NNW,338,0.0,0.0,85,0.00,,,0.41,WUHU216HW,2013-07-01 02:12:00,
2013-06-30 22:13:00,76.2,71.4,29.66,West,270,0.0,0.0,85,0.00,,,0.41,WUHU216HW,2013-07-01 02:13:00,
2013-06-30 22:14:00,71.2,68.4,29.57,NNE,23,0.0,0.0,91,0.00,,,0.16,WUHU216HW,2013-07-01 02:14:00,
2013-06-30 22:15:00,76.6,71.4,29.66,NE,45,0.0,0.0,84,0.00,,,0.41,WUHU216HW,2013-07-01 02:15:00,
2013-06-30 22:16:00,76.6,71.4,29.66,NE,45,0.0,0.0,84,0.00,,,0.41,WUHU216HW,2013-07-01 02:16:00,
2013-06-30 22:17:00,76.6,71.4,29.66,NNW,338,3.1,3.1,84,0.00,,,0.41,WUHU216HW,2013-07-01 02:17:00,
2013-06-30 22:18:00,76.6,71.4,29.66,NNW,338,3.1,3.1,84,0.00,,,0.41,WUHU216HW,2013-07-01 02:18:00,
2013-06-30 22:19:00,71.2,68.4,29.58,NNE,23,0.0,0.0,91,0.00,,,0.16,WUHU216HW,2013-07-01 02:19:00,
2013-06-30 22:20:00,76.6,71.4,29.66,NNE,23,0.0,3.1,83,0.00,,,0.41,WUHU216HW,2013-07-01 02:20:00,
2013-06-30 22:21:00,76.6,71.4,29.66,NNE,23,0.0,3.1,83,0.00,,,0.41,WUHU216HW,2013-07-01 02:21:00,
2013-06-30 22:22:00,76.6,71.4,29.66,NE,45,0.0,3.1,83,0.00,,,0.41,WUHU216HW,2013-07-01 02:22:00,
2013-06-30 22:23:00,76.6,71.4,29.66,NE,45,0.0,3.1,83,0.00,,,0.41,WUHU216HW,2013-07-01 02:23:00,
2013-06-30 22:24:00,71.2,68.4,29.58,NNE,23,0.0,0.0,91,0.00,,,0.16,WUHU216HW,2013-07-01 02:24:00,
2013-06-30 22:25:00,76.6,71.4,29.66,NW,315,3.5,3.5,83,0.00,,,0.41,WUHU216HW,2013-07-01 02:25:00,
2013-06-30 22:26:00,76.6,71.4,29.66,ENE,68,0.0,3.5,83,0.00,,,0.41,WUHU216HW,2013-07-01 02:26:00,
2013-06-30 22:27:00,76.6,71.4,29.66,ENE,68,0.0,3.5,83,0.00,,,0.41,WUHU216HW,2013-07-01 02:27:00,
2013-06-30 22:28:00,76.8,70.8,29.66,ENE,68,0.6,3.5,82,0.00,,,0.41,WUHU216HW,2013-07-01 02:28:00,
2013-06-30 22:29:00,71.2,68.4,29.58,ENE,68,0.0,0.0,91,0.00,,,0.16,WUHU216HW,2013-07-01 02:29:00,
2013-06-30 22:30:00,76.8,70.8,29.66,NNW,338,0.0,3.5,83,0.00,,,0.41,WUHU216HW,2013-07-01 02:30:00,
2013-06-30 22:31:00,76.8,70.8,29.66,NNW,338,0.0,3.5,83,0.00,,,0.41,WUHU216HW,2013-07-01 02:31:00,
2013-06-30 22:32:00,76.8,70.8,29.66,NNW,338,0.0,3.5,83,0.00,,,0.41,WUHU216HW,2013-07-01 02:32:00,
2013-06-30 22:33:00,76.8,70.8,29.66,NW,315,0.0,3.5,83,0.00,,,0.41,WUHU216HW,2013-07-01 02:33:00,
2013-06-30 22:34:00,71.2,68.4,29.58,ENE,68,0.0,0.0,91,0.02,,,0.18,WUHU216HW,2013-07-01 02:34:00,
2013-06-30 22:35:00,76.8,70.8,29.66,NE,45,2.9,3.5,82,0.00,,,0.41,WUHU216HW,2013-07-01 02:35:00,
2013-06-30 22:36:00,76.8,70.8,29.66,NE,45,2.9,2.9,82,0.00,,,0.41,WUHU216HW,2013-07-01 02:36:00,
2013-06-30 22:37:00,77.0,71.4,29.66,NE,45,2.6,2.9,83,0.00,,,0.41,WUHU216HW,2013-07-01 02:37:00,
2013-06-30 22:38:00,77.0,71.4,29.66,NE,45,2.6,2.9,83,0.00,,,0.41,WUHU216HW,2013-07-01 02:38:00,
2013-06-30 22:39:00,71.2,68.4,29.57,SE,135,0.0,0.0,91,0.04,,,0.20,WUHU216HW,2013-07-01 02:39:00,
2013-06-30 22:40:00,77.0,71.4,29.66,NE,45,0.0,2.9,83,0.00,,,0.41,WUHU216HW,2013-07-01 02:40:00,
2013-06-30 22:41:00,77.0,71.4,29.66,NW,315,3.1,3.1,83,0.00,,,0.41,WUHU216HW,2013-07-01 02:41:00,
2013-06-30 22:42:00,77.0,71.4,29.66,NW,315,3.1,3.1,83,0.00,,,0.41,WUHU216HW,2013-07-01 02:42:00,
2013-06-30 22:43:00,76.8,71.2,29.66,NNW,338,0.0,3.1,83,0.00,,,0.41,WUHU216HW,2013-07-01 02:43:00,
2013-06-30 22:44:00,71.2,68.4,29.56,SE,135,0.0,0.0,92,0.06,,,0.22,WUHU216HW,2013-07-01 02:44:00,
2013-06-30 22:45:00,76.8,71.2,29.66,NNW,338,0.0,3.1,83,0.00,,,0.41,WUHU216HW,2013-07-01 02:45:00,
2013-06-30 22:46:00,76.8,71.2,29.66,NNW,338,0.0,3.1,83,0.00,,,0.41,WUHU216HW,2013-07-01 02:46:00,
2013-06-30 22:47:00,76.8,71.2,29.66,NNW,338,0.0,3.1,83,0.00,,,0.41,WUHU216HW,2013-07-01 02:47:00,
2013-06-30 22:48:00,76.8,71.2,29.66,NNE,23,0.0,3.1,83,0.00,,,0.41,WUHU216HW,2013-07-01 02:48:00,
2013-06-30 22:49:00,71.2,68.4,29.56,SE,135,0.0,0.0,92,0.06,,,0.22,WUHU216HW,2013-07-01 02:49:00,
2013-06-30 22:50:00,76.8,71.2,29.66,NNE,23,0.0,3.1,83,0.00,,,0.41,WUHU216HW,2013-07-01 02:50:00,
2013-06-30 22:51:00,76.8,71.2,29.66,NNE,23,0.0,3.1,83,0.00,,,0.41,WUHU216HW,2013-07-01 02:51:00,
2013-06-30 22:52:00,76.8,71.2,29.66,NNW,338,0.0,3.1,83,0.00,,,0.41,WUHU216HW,2013-07-01 02:52:00,
2013-06-30 22:53:00,76.8,71.2,29.66,NNW,338,0.0,0.0,83,0.00,,,0.41,WUHU216HW,2013-07-01 02:53:00,
2013-06-30 22:54:00,71.2,68.4,29.56,SE,135,0.0,0.0,92,0.08,,,0.24,WUHU216HW,2013-07-01 02:54:00,
2013-06-30 22:55:00,76.8,71.2,29.66,NNW,338,0.0,0.0,83,0.00,,,0.41,WUHU216HW,2013-07-01 02:55:00,
2013-06-30 22:56:00,76.6,71.0,29.66,ENE,68,0.0,0.0,83,0.00,,,0.41,WUHU216HW,2013-07-01 02:56:00,
2013-06-30 22:57:00,76.6,71.0,29.66,ENE,68,0.0,0.0,83,0.00,,,0.41,WUHU216HW,2013-07-01 02:57:00,
2013-06-30 22:58:00,76.6,71.0,29.66,ENE,68,0.0,0.0,83,0.00,,,0.41,WUHU216HW,2013-07-01 02:58:00,
2013-06-30 22:59:00,71.2,68.4,29.56,SE,135,0.0,0.0,92,0.08,,,0.24,WUHU216HW,2013-07-01 02:59:00,
2013-06-30 23:00:00,76.6,71.0,29.66,NNE,23,0.0,0.0,82,0.00,,,0.41,WUHU216HW,2013-07-01 03:00:00,
2013-06-30 23:01:00,76.6,71.0,29.66,NE,45,0.0,0.0,82,0.00,,,0.41,WUHU216HW,2013-07-01 03:01:00,
2013-06-30 23:02:00,76.6,71.0,29.66,NE,45,0.0,0.0,82,0.00,,,0.41,WUHU216HW,2013-07-01 03:02:00,
2013-06-30 23:03:00,76.6,71.0,29.66,NE,45,0.4,0.4,82,0.00,,,0.41,WUHU216HW,2013-07-01 03:03:00,
2013-06-30 23:04:00,71.2,68.4,29.56,SE,135,0.0,0.0,92,0.08,,,0.24,WUHU216HW,2013-07-01 03:04:00,
2013-06-30 23:05:00,76.6,71.0,29.66,NE,45,0.0,0.4,83,0.00,,,0.41,WUHU216HW,2013-07-01 03:05:00,
2013-06-30 23:06:00,76.6,71.0,29.66,NE,45,0.0,0.4,83,0.00,,,0.41,WUHU216HW,2013-07-01 03:06:00,
2013-06-30 23:07:00,76.6,71.0,29.66,North,0,0.0,0.4,83,0.00,,,0.41,WUHU216HW,2013-07-01 03:07:00,
2013-06-30 23:08:00,76.6,71.0,29.66,North,0,0.0,0.4,83,0.00,,,0.41,WUHU216HW,2013-07-01 03:08:00,
2013-06-30 23:09:00,71.2,68.4,29.56,SE,135,0.0,0.0,92,0.08,,,0.24,WUHU216HW,2013-07-01 03:09:00,
2013-06-30 23:10:00,76.6,71.0,29.66,NNE,23,0.0,0.4,83,0.00,,,0.41,WUHU216HW,2013-07-01 03:10:00,
2013-06-30 23:11:00,76.6,71.0,29.66,NE,45,0.0,0.4,83,0.00,,,0.41,WUHU216HW,2013-07-01 03:11:00,
2013-06-30 23:12:00,76.6,71.0,29.66,NE,45,0.0,0.4,83,0.00,,,0.41,WUHU216HW,2013-07-01 03:12:00,
2013-06-30 23:13:00,76.8,71.2,29.66,NE,45,0.0,0.4,83,0.00,,,0.41,WUHU216HW,2013-07-01 03:13:00,
2013-06-30 23:14:00,76.8,71.2,29.66,NE,45,0.0,0.4,83,0.00,,,0.41,WUHU216HW,2013-07-01 03:14:00,
2013-06-30 23:15:00,71.2,68.4,29.57,SE,135,0.0,0.0,92,0.08,,,0.24,WUHU216HW,2013-07-01 03:15:00,
2013-06-30 23:16:00,76.8,71.2,29.66,NNW,338,2.0,2.0,83,0.00,,,0.41,WUHU216HW,2013-07-01 03:16:00,
2013-06-30 23:17:00,76.8,71.2,29.66,NNW,338,2.0,2.0,83,0.00,,,0.41,WUHU216HW,2013-07-01 03:17:00,
2013-06-30 23:18:00,76.8,71.2,29.66,NE,45,0.0,2.0,83,0.00,,,0.41,WUHU216HW,2013-07-01 03:18:00,
2013-06-30 23:19:00,77.0,71.4,29.66,NE,45,0.0,2.0,83,0.00,,,0.41,WUHU216HW,2013-07-01 03:19:00,
2013-06-30 23:20:00,71.2,68.4,29.56,SE,135,0.0,0.0,92,0.08,,,0.24,WUHU216HW,2013-07-01 03:20:00,
2013-06-30 23:21:00,77.0,71.4,29.66,NE,45,0.0,2.0,83,0.00,,,0.41,WUHU216HW,2013-07-01 03:21:00,
2013-06-30 23:22:00,77.1,71.2,29.66,NE,45,0.0,2.0,82,0.00,,,0.41,WUHU216HW,2013-07-01 03:22:00,
2013-06-30 23:23:00,77.1,71.2,29.66,NE,45,0.0,2.0,82,0.00,,,0.41,WUHU216HW,2013-07-01 03:23:00,
2013-06-30 23:24:00,77.1,71.2,29.66,SSE,158,1.1,2.0,82,0.00,,,0.41,WUHU216HW,2013-07-01 03:24:00,
2013-06-30 23:25:00,71.2,68.4,29.56,SE,135,0.0,0.0,92,0.08,,,0.24,WUHU216HW,2013-07-01 03:25:00,
2013-06-30 23:26:00,77.1,71.2,29.66,North,0,2.6,2.6,81,0.00,,,0.41,WUHU216HW,2013-07-01 03:26:00,
2013-06-30 23:27:00,77.1,71.2,29.66,North,0,2.6,2.6,81,0.00,,,0.41,WUHU216HW,2013-07-01 03:27:00,
2013-06-30 23:28:00,77.1,71.2,29.66,North,0,2.6,2.6,81,0.00,,,0.41,WUHU216HW,2013-07-01 03:28:00,
2013-06-30 23:29:00,77.1,71.2,29.66,NNE,23,0.0,2.6,82,0.00,,,0.41,WUHU216HW,2013-07-01 03:29:00,
2013-06-30 23:30:00,71.2,68.4,29.57,SE,135,0.0,0.0,92,0.08,,,0.24,WUHU216HW,2013-07-01 03:30:00,
2013-06-30 23:31:00,77.1,71.2,29.66,NNW,338,0.0,2.6,82,0.00,,,0.41,WUHU216HW,2013-07-01 03:31:00,
2013-06-30 23:32:00,77.1,71.2,29.66,NNW,338,0.0,2.6,82,0.00,,,0.41,WUHU216HW,2013-07-01 03:32:00,
2013-06-30 23:33:00,77.1,71.2,29.66,NW,315,0.4,2.6,82,0.00,,,0.41,WUHU216HW,2013-07-01 03:33:00,
2013-06-30 23:34:00,77.1,71.2,29.66,NW,315,0.4,2.6,82,0.00,,,0.41,WUHU216HW,2013-07-01 03:34:00,
2013-06-30 23:35:00,71.2,68.4,29.58,SE,135,0.0,0.0,92,0.08,,,0.24,WUHU216HW,2013-07-01 03:35:00,
2013-06-30 23:36:00,77.1,71.2,29.66,ESE,113,0.8,2.6,81,0.00,,,0.41,WUHU216HW,2013-07-01 03:36:00,
2013-06-30 23:37:00,77.1,71.2,29.66,NNW,338,3.5,3.5,81,0.00,,,0.41,WUHU216HW,2013-07-01 03:37:00,
2013-06-30 23:38:00,77.1,71.2,29.66,NNW,338,3.5,3.5,81,0.00,,,0.41,WUHU216HW,2013-07-01 03:38:00,
2013-06-30 23:39:00,77.0,70.7,29.66,ENE,68,0.0,3.5,81,0.00,,,0.41,WUHU216HW,2013-07-01 03:39:00,
2013-06-30 23:40:00,71.2,68.4,29.58,SE,135,0.0,0.0,92,0.08,,,0.24,WUHU216HW,2013-07-01 03:40:00,
2013-06-30 23:41:00,77.1,70.8,29.66,NNW,338,0.0,3.5,81,0.00,,,0.41,WUHU216HW,2013-07-01 03:41:00,
2013-06-30 23:42:00,77.1,70.8,29.66,NNW,338,0.0,3.5,81,0.00,,,0.41,WUHU216HW,2013-07-01 03:42:00,
2013-06-30 23:43:00,77.0,71.0,29.66,NNW,338,0.0,3.5,82,0.00,,,0.41,WUHU216HW,2013-07-01 03:43:00,
2013-06-30 23:44:00,77.0,71.0,29.66,NNW,338,0.0,3.5,82,0.00,,,0.41,WUHU216HW,2013-07-01 03:44:00,
2013-06-30 23:45:00,71.2,68.4,29.58,SE,135,0.0,0.0,92,0.08,,,0.24,WUHU216HW,2013-07-01 03:45:00,
2013-06-30 23:46:00,76.8,70.8,29.66,NNW,338,0.0,3.5,82,0.00,,,0.41,WUHU216HW,2013-07-01 03:46:00,
2013-06-30 23:47:00,76.8,70.8,29.66,NNW,338,0.0,3.5,82,0.00,,,0.41,WUHU216HW,2013-07-01 03:47:00,
2013-06-30 23:48:00,76.8,70.8,29.66,NNW,338,0.0,3.5,82,0.00,,,0.41,WUHU216HW,2013-07-01 03:48:00,
2013-06-30 23:49:00,76.8,70.8,29.66,NNW,338,0.0,0.0,82,0.00,,,0.41,WUHU216HW,2013-07-01 03:49:00,
2013-06-30 23:50:00,71.2,68.4,29.58,SE,135,0.0,0.0,92,0.08,,,0.24,WUHU216HW,2013-07-01 03:50:00,
2013-06-30 23:51:00,76.8,70.8,29.66,North,0,1.1,1.1,82,0.00,,,0.41,WUHU216HW,2013-07-01 03:51:00,
2013-06-30 23:52:00,76.8,70.8,29.66,NE,45,0.0,1.1,82,0.00,,,0.41,WUHU216HW,2013-07-01 03:52:00,
2013-06-30 23:53:00,76.8,70.8,29.66,NE,45,0.0,1.1,82,0.00,,,0.41,WUHU216HW,2013-07-01 03:53:00,
2013-06-30 23:54:00,76.6,70.7,29.66,NNE,23,2.2,2.2,82,0.00,,,0.41,WUHU216HW,2013-07-01 03:54:00,
2013-06-30 23:55:00,71.2,68.4,29.58,SE,135,0.0,0.0,92,0.08,,,0.24,WUHU216HW,2013-07-01 03:55:00,
2013-06-30 23:56:00,76.2,70.3,29.66,ENE,68,3.3,3.3,82,0.00,,,0.41,WUHU216HW,2013-07-01 03:56:00,
2013-06-30 23:57:00,76.2,70.3,29.66,ENE,68,3.3,3.3,82,0.00,,,0.41,WUHU216HW,2013-07-01 03:57:00,
2013-06-30 23:58:00,76.2,70.3,29.66,ENE,68,3.3,3.3,82,0.00,,,0.41,WUHU216HW,2013-07-01 03:58:00,
2013-06-30 23:59:00,76.1,70.2,29.66,NNE,23,2.4,3.3,82,0.00,,,0.41,WUHU216HW,2013-07-01 03:59:00,